GFSGBSN_850_rhum_075.txt.gz
RH
70 44 38 37 47 99 72 100 100 100 99 97 94 99 94 90 90 69 41 82 75 62 68 69 66 62 64 62 56 66 70 86 86 87 98 83 97 76 84 80 81 77 70 68 73 72 72
71 52 42 35 41 72 70 89 98 100 99 99 99 100 98 93 88 73 84 50 78 63 63 69 72 71 67 68 60 65 64 97 99 88 94 90 94 70 73 76 79 73 62 72 82 89 78
75 61 49 36 36 54 54 94 91 88 98 98 99 98 98 98 93 90 77 82 57 61 65 65 66 65 65 62 70 60 70 72 87 86 86 81 87 72 80 88 71 72 80 87 83 89 90
78 67 58 40 38 39 64 82 98 97 99 98 98 98 92 93 98 84 76 70 68 56 64 68 72 61 56 71 65 62 73 76 82 90 80 75 88 80 84 80 76 77 80 90 84 81 96
81 71 64 48 40 37 48 84 100 99 99 98 99 99 99 83 98 80 83 65 63 49 52 57 61 62 62 70 62 59 71 68 82 79 71 69 89 86 84 88 88 85 89 88 95 71 88
86 76 69 55 43 38 41 51 91 81 99 98 98 98 99 59 96 91 81 62 67 55 62 70 72 63 67 68 64 56 72 72 79 73 75 78 90 94 92 90 85 95 88 86 78 79 80
89 80 72 61 46 41 41 46 85 92 96 98 98 98 95 57 94 78 78 74 73 80 80 73 80 74 72 70 62 78 81 78 82 87 96 83 98 95 84 73 65 75 74 70 75 74 76
90 82 76 67 48 43 41 38 68 84 96 99 99 99 78 57 90 77 67 75 71 64 70 79 81 75 72 75 74 87 80 87 98 92 78 90 100 80 77 70 70 70 78 75 58 70 66
93 84 79 72 51 45 40 34 40 64 91 92 100 90 43 88 67 74 72 62 67 68 79 90 84 77 82 73 79 87 96 93 98 99 89 82 92 83 77 79 75 74 73 74 67 73 58
98 86 82 73 54 48 37 34 35 57 52 73 85 52 35 67 82 82 84 70 72 74 92 89 80 79 80 76 79 89 89 81 99 98 95 84 90 90 81 81 70 80 64 63 68 76 87
100 87 82 71 57 49 35 34 38 51 45 45 38 45 46 73 81 84 84 78 80 75 93 98 88 84 84 88 81 78 85 83 93 94 95 98 95 94 84 78 62 72 59 61 63 66 62
100 86 80 67 55 49 36 37 45 45 42 34 38 37 65 78 86 86 85 82 87 84 96 100 96 88 79 83 79 79 81 88 87 87 87 94 85 90 73 78 62 61 65 67 73 69 92
96 88 78 65 54 45 39 42 40 40 41 34 36 64 73 86 87 86 83 90 87 89 73 99 100 95 86 87 78 83 87 94 88 97 100 96 95 92 81 81 68 62 73 94 94 96 86
89 90 75 64 55 42 42 40 36 40 40 36 55 78 81 90 89 84 92 84 84 77 91 78 93 98 100 96 96 77 88 97 87 96 98 97 100 95 83 77 76 65 64 84 87 92 82
91 90 72 62 54 42 45 38 36 39 38 43 73 85 90 91 93 87 85 93 80 82 79 86 82 99 100 85 83 85 89 91 91 93 96 99 100 89 90 84 74 78 89 59 79 79 80
92 88 68 61 50 46 46 37 37 39 37 50 79 87 93 90 100 96 91 88 87 70 76 81 87 82 94 89 93 98 92 77 96 90 84 84 99 86 86 78 82 72 65 80 86 83 82
95 84 66 60 46 50 44 36 37 39 36 48 81 86 98 96 99 97 94 94 81 72 77 85 84 73 87 93 87 88 88 76 80 87 66 70 78 97 76 86 90 88 86 79 70 68 70
92 77 67 58 47 52 40 36 38 38 32 52 85 94 99 99 97 99 89 78 70 76 79 78 82 77 62 68 75 75 77 69 72 71 71 67 73 96 98 78 80 82 84 72 86 84 81
91 73 69 54 50 51 39 38 39 39 29 43 72 92 90 99 96 92 80 78 74 71 72 74 63 57 55 65 77 74 70 62 70 69 73 70 83 96 91 74 80 93 90 75 76 81 89
86 73 65 50 53 48 41 38 39 37 29 38 59 90 79 94 83 89 84 83 78 70 65 60 59 54 53 64 70 73 71 64 58 58 61 58 77 73 82 70 83 95 93 85 85 98 82
81 72 61 49 55 48 39 40 38 34 30 35 50 86 88 92 84 85 83 82 80 83 69 64 60 74 65 62 68 77 70 65 55 65 61 62 83 78 67 67 88 90 86 89 91 77 83
79 71 58 51 54 47 40 43 38 24 30 30 43 64 70 81 85 86 78 83 92 86 83 76 75 76 65 66 65 68 68 65 59 59 65 66 85 79 80 79 81 82 82 88 86 81 73
78 67 54 54 54 45 43 44 35 26 23 26 42 52 60 83 79 86 80 76 80 82 79 75 82 72 75 74 67 60 59 59 57 64 72 68 79 82 81 75 67 71 68 77 83 79 74
80 65 52 56 53 46 46 45 39 28 29 25 25 36 47 71 80 76 73 70 71 77 83 74 81 68 77 73 61 57 58 61 60 73 64 75 72 75 85 69 83 50 51 56 67 64 74
78 64 52 59 52 46 47 48 45 31 33 36 39 38 36 85 74 72 71 81 76 79 88 92 91 88 80 64 70 70 76 63 68 76 69 64 77 88 88 90 66 52 62 67 67 58 62
71 60 56 58 52 47 47 50 48 44 37 44 44 46 37 47 72 69 74 77 84 90 86 85 82 82 77 80 72 62 84 72 74 78 74 73 72 75 92 93 76 42 61 52 53 75 52
66 54 58 57 51 49 50 51 50 46 44 45 54 59 46 57 69 67 68 64 71 88 88 85 77 85 82 88 85 82 71 69 84 88 87 84 82 87 78 87 81 58 51 56 77 61 60
66 54 60 56 52 55 52 50 47 42 48 50 61 64 60 61 70 63 63 62 69 72 76 74 87 98 98 97 87 88 88 81 78 72 82 85 91 92 89 96 92 49 65 72 55 60 67
60 57 61 57 55 57 52 50 46 50 51 58 67 68 61 64 67 72 74 74 71 71 73 74 98 98 99 100 93 94 93 89 81 82 75 81 71 80 76 76 51 45 57 52 55 59 66

GFSGBSN_850_rhum_078.txt.gz
RH
77 74 52 45 39 42 41 77 99 99 98 91 95 96 96 99 95 91 81 52 87 65 57 56 54 53 62 68 55 59 67 72 84 89 81 98 85 60 55 56 64 63 53 53 54 65 62
79 76 61 51 39 42 41 44 97 98 93 97 95 93 99 94 98 88 72 86 61 61 62 63 57 58 69 53 56 68 67 79 95 98 81 98 90 55 51 52 59 59 60 52 69 70 68
88 79 68 58 44 41 41 57 78 88 99 96 96 95 98 98 97 92 81 74 85 60 65 64 60 54 62 61 70 66 76 74 95 98 91 96 93 72 53 50 55 58 67 62 64 73 62
99 86 75 64 53 43 42 48 59 90 99 96 96 96 97 100 97 98 79 84 73 54 63 67 67 52 55 71 63 71 78 70 88 97 87 90 90 83 62 67 60 56 48 83 57 71 80
97 96 80 70 62 45 43 46 43 76 90 95 96 96 97 99 90 98 78 81 66 51 53 54 60 60 57 68 69 61 73 86 69 90 83 88 97 86 73 58 63 60 52 49 64 59 73
93 98 83 78 70 49 44 46 39 57 96 94 96 95 98 99 84 98 86 73 73 58 60 63 65 64 67 70 64 64 81 77 87 86 87 92 96 85 59 57 63 62 53 52 57 69 64
100 100 86 82 74 57 47 47 36 43 91 98 97 98 99 94 96 99 87 72 86 93 90 71 77 73 76 63 59 80 90 81 81 90 95 94 96 90 56 42 35 47 54 59 54 68 61
100 99 88 83 75 63 50 47 35 39 85 99 98 98 84 83 99 88 73 80 71 61 66 77 78 79 68 68 74 92 82 78 82 94 87 95 100 74 53 49 44 46 51 51 52 56 55
100 100 90 84 76 65 53 46 36 38 82 88 99 78 65 97 84 77 71 61 64 62 66 86 84 87 85 74 74 89 91 90 93 78 98 90 90 68 59 58 50 47 47 50 50 59 54
100 100 97 82 77 63 53 42 37 42 61 78 78 50 47 84 87 81 83 68 71 69 88 89 74 80 87 82 74 96 97 88 98 91 87 79 82 82 66 53 43 63 44 47 54 56 57
100 100 99 80 78 60 53 40 40 41 47 55 40 42 46 78 82 87 82 75 72 66 80 95 84 81 80 80 74 95 96 88 98 95 84 96 94 95 69 54 44 45 50 47 46 44 52
99 100 97 82 74 57 53 41 42 37 39 41 40 41 68 80 87 84 79 79 81 90 95 99 93 73 65 71 69 77 82 95 90 80 85 90 83 88 55 62 52 49 50 53 54 56 68
100 100 96 85 71 54 51 43 41 36 38 37 45 68 80 87 88 81 78 89 96 85 73 100 98 76 74 67 66 75 82 75 77 98 100 96 96 83 76 66 53 49 52 82 83 82 60
99 100 97 88 70 54 47 45 39 35 38 43 73 78 88 85 85 80 84 77 92 78 97 81 96 84 82 77 82 79 72 80 68 89 100 97 100 95 68 67 64 54 44 57 61 62 48
100 100 98 91 66 55 45 46 38 36 38 53 82 87 88 83 85 83 81 92 88 87 75 83 95 100 100 92 78 68 71 72 72 80 84 90 97 88 73 71 60 65 66 46 61 59 57
100 100 99 89 65 54 47 45 35 36 36 56 86 92 90 92 94 90 85 85 89 64 72 71 76 76 67 74 75 83 69 64 86 77 75 75 96 84 81 77 63 57 47 65 74 74 57
100 100 97 85 64 50 48 42 35 36 33 61 88 94 95 95 100 93 96 85 74 70 73 76 74 77 82 88 73 75 67 77 77 81 76 61 65 94 68 75 62 63 63 60 50 53 46
100 99 94 80 64 48 50 39 36 36 31 73 84 96 100 98 95 94 74 68 68 72 77 70 70 59 61 70 64 62 66 63 80 68 69 57 64 92 97 68 65 64 60 49 62 65 60
100 97 90 75 62 49 49 39 36 35 30 68 89 100 100 99 91 80 72 72 71 68 66 68 58 52 49 57 67 63 61 61 71 60 57 53 67 89 94 68 66 70 64 58 56 66 77
100 96 87 72 57 50 47 36 36 32 31 53 72 89 87 99 89 77 73 74 72 72 62 59 56 50 50 57 57 64 63 58 67 58 61 51 56 58 63 63 59 78 69 66 71 95 56
100 95 82 68 53 51 45 36 36 29 32 44 50 78 83 88 70 71 72 73 70 73 66 62 57 61 53 55 58 64 60 55 55 64 56 52 80 68 55 54 77 75 70 69 93 70 73
100 94 78 64 50 50 41 37 34 19 28 40 54 60 61 71 78 71 71 78 79 76 74 69 64 61 54 54 54 59 56 53 53 54 54 52 80 75 79 64 68 73 60 61 64 62 58
100 92 77 59 51 50 39 37 28 25 25 29 34 44 59 78 68 70 64 69 76 73 78 72 74 61 63 68 65 59 56 55 49 49 54 55 64 71 68 62 62 65 54 56 56 55 57
100 94 77 55 51 46 39 37 25 28 27 23 20 37 55 60 62 62 63 64 66 67 76 69 82 61 80 78 67 60 57 55 52 58 52 55 56 58 64 61 75 42 44 44 46 45 44
100 92 76 53 51 43 39 38 27 26 31 33 25 20 36 55 58 62 60 62 65 72 77 84 89 90 82 70 55 56 57 60 63 60 56 49 51 64 67 63 46 38 53 52 52 42 42
99 95 74 52 52 41 40 38 34 23 33 38 37 20 22 35 38 62 56 65 55 64 63 76 81 79 81 63 60 62 64 59 62 71 62 58 53 54 70 73 57 37 54 52 48 57 49
100 93 71 56 50 41 41 40 32 22 33 39 44 35 38 52 63 54 52 50 66 72 66 74 73 84 87 70 74 64 54 56 58 65 71 69 67 72 64 66 52 40 45 54 57 49 52
100 85 68 56 47 44 44 42 24 28 35 42 50 41 43 55 62 58 59 64 72 64 53 72 78 93 85 78 75 66 58 54 59 56 62 60 64 68 66 72 74 47 57 56 41 55 60
97 80 56 55 47 47 45 38 26 31 40 47 51 49 51 58 64 66 73 73 70 69 72 74 96 96 98 100 89 79 72 66 59 60 62 62 49 52 54 50 42 46 49 51 51 57 62

GFSGBSN_850_rhum_081.txt.gz
RH
89 81 77 66 58 44 44 48 47 78 84 91 90 90 93 98 90 91 85 87 66 61 52 55 55 52 74 64 52 61 63 82 86 72 88 99 85 67 54 44 42 50 37 36 46 48 49
100 94 81 73 63 54 44 45 54 55 76 96 92 91 89 96 88 92 86 76 90 58 57 53 49 53 75 49 59 67 72 82 97 84 89 93 93 60 45 39 39 47 42 37 53 46 49
100 99 94 78 69 64 47 45 48 58 88 90 92 92 90 95 97 93 88 87 73 66 60 56 45 67 70 52 66 71 75 82 82 95 97 87 84 100 44 39 47 43 53 48 54 56 54
100 99 97 85 76 70 57 48 48 50 77 96 89 94 93 94 99 90 94 88 87 68 55 58 56 80 50 65 70 68 66 82 76 87 100 92 91 94 49 38 50 56 47 68 56 49 59
100 100 96 92 80 75 65 51 48 43 78 94 90 95 93 95 99 98 96 84 66 62 48 49 74 74 43 67 62 67 76 72 88 78 94 94 91 94 55 50 65 58 60 49 54 49 63
99 100 98 98 81 79 70 55 48 39 59 90 96 98 97 98 99 99 95 88 80 60 68 77 80 73 56 59 67 60 78 83 83 74 98 98 98 94 62 52 63 54 39 39 50 56 57
94 100 99 100 82 80 73 57 50 37 41 90 95 98 98 99 99 98 95 99 85 87 83 64 61 59 61 66 67 78 77 79 81 90 97 94 97 99 52 35 25 28 31 30 28 41 52
93 100 98 100 86 81 75 58 50 37 41 86 88 94 94 95 98 98 96 78 71 71 59 73 74 68 71 73 56 78 75 72 66 100 86 95 99 83 42 32 40 34 50 50 47 46 48
100 98 98 97 94 82 75 57 48 38 42 71 82 84 85 88 95 90 93 77 54 53 58 72 75 71 72 81 63 67 85 79 77 93 90 94 91 66 54 43 50 40 41 43 45 46 45
100 98 100 99 96 83 73 55 46 40 40 40 50 47 64 80 94 94 89 67 61 78 92 80 65 76 76 74 91 97 80 91 88 88 90 71 82 68 56 42 32 43 29 35 44 55 60
98 99 99 100 97 84 69 54 44 42 36 37 38 37 40 74 97 92 92 69 63 78 82 88 71 79 75 71 74 96 96 94 88 82 97 98 93 80 60 43 34 35 33 36 41 45 34
100 99 98 100 96 85 66 55 43 42 35 35 37 41 65 79 93 89 80 80 91 90 92 97 79 58 51 57 60 82 90 97 88 88 75 83 80 79 58 41 40 42 44 41 39 40 61
100 98 100 99 98 86 64 54 45 40 35 35 53 64 76 86 93 78 80 91 96 87 70 93 83 58 54 60 59 86 94 91 87 94 99 94 95 82 72 59 49 41 47 71 71 75 55
100 100 100 98 99 86 61 50 47 37 36 40 71 76 84 82 80 77 94 72 94 76 97 88 75 67 63 58 62 64 65 65 67 84 99 98 98 92 60 57 59 42 39 50 54 52 41
98 100 97 98 98 86 58 47 46 36 37 50 78 86 92 81 82 83 85 94 92 92 69 85 82 89 80 70 62 52 60 56 61 67 69 81 98 78 70 60 54 52 57 40 50 43 45
98 100 95 100 98 82 57 48 42 36 37 57 97 98 93 87 88 89 85 87 87 61 61 61 78 64 56 59 57 64 54 49 67 65 58 59 97 90 63 65 54 58 38 50 68 65 44
100 100 98 100 98 74 54 49 39 37 35 60 100 92 85 88 98 91 92 74 65 61 64 70 62 69 44 54 50 56 47 60 67 67 64 53 58 88 64 95 69 60 60 50 44 48 43
100 100 98 100 94 67 51 49 38 38 33 71 93 89 87 95 95 82 61 59 62 64 65 62 59 48 53 54 54 50 54 55 69 63 61 50 59 93 75 57 54 56 46 44 62 55 44
100 99 99 99 90 64 48 48 37 37 32 74 76 97 97 98 82 68 61 61 60 61 58 59 52 48 44 49 55 52 53 56 67 57 62 47 66 93 89 63 53 60 50 47 42 68 72
100 100 100 98 83 60 48 46 36 34 31 69 75 88 92 99 81 65 61 61 63 64 53 51 46 44 46 48 47 55 57 58 62 56 59 49 52 60 65 60 51 64 52 49 64 93 54
99 100 100 95 77 55 48 43 36 33 31 55 58 58 74 85 62 58 60 56 58 60 55 52 51 47 44 49 50 53 53 58 57 61 51 50 75 65 53 48 72 68 57 51 78 69 69
100 100 100 95 77 52 49 39 36 29 32 46 48 47 63 58 63 56 67 60 58 65 58 56 52 49 44 45 50 52 49 49 51 51 50 47 77 70 76 51 57 66 53 50 52 52 56
100 100 100 96 76 51 48 37 35 22 27 42 35 40 46 63 54 52 51 57 64 63 66 65 60 49 55 65 54 52 50 47 43 46 49 51 58 65 63 51 51 58 50 48 47 44 47
99 100 100 94 72 51 45 37 33 24 23 25 24 46 42 41 44 49 56 57 61 62 64 64 64 52 75 77 68 53 47 45 44 45 44 49 52 54 63 53 71 37 36 36 40 37 37
100 100 99 92 64 51 42 37 32 26 28 26 22 29 37 42 45 55 54 56 58 61 64 70 79 79 81 66 50 53 53 52 49 49 46 42 43 52 62 54 40 33 35 42 44 36 31
100 100 100 88 64 52 42 39 33 25 31 32 23 17 37 39 43 51 54 53 52 55 60 65 77 75 83 52 54 59 58 47 56 59 52 50 47 52 58 64 58 38 48 44 43 49 44
100 100 100 87 67 49 42 40 34 25 34 36 31 18 43 38 56 49 38 43 51 55 53 63 63 75 81 59 66 59 46 44 51 52 65 63 58 67 61 65 45 31 44 45 56 50 44
100 100 99 84 69 48 44 41 25 27 34 36 34 35 51 50 66 65 61 57 58 50 46 66 67 75 67 70 64 59 49 43 47 38 48 49 53 55 53 61 69 44 46 48 42 46 47
100 100 97 84 62 48 43 40 19 32 36 42 37 42 47 66 72 70 74 72 68 73 60 74 86 96 98 82 70 70 57 50 43 50 47 57 40 43 42 42 39 41 37 42 45 50 49

GFSGBSN_850_rhum_084.txt.gz
RH
97 99 99 93 79 68 59 48 47 47 41 64 86 89 89 88 97 73 89 84 83 57 52 56 56 54 68 77 60 57 63 69 75 82 90 90 80 80 70 56 50 62 57 61 59 81 62
100 100 100 99 91 76 67 55 48 48 44 80 86 88 92 89 95 90 89 83 82 75 52 51 49 53 87 63 58 64 67 71 69 87 94 91 87 74 68 45 47 49 50 53 58 72 93
100 100 100 100 95 83 75 64 51 49 47 64 93 85 91 90 96 98 86 84 89 76 56 52 47 66 73 60 58 66 67 78 63 83 95 96 100 93 91 55 39 38 51 48 79 76 80
99 100 100 100 96 91 79 71 56 49 49 54 84 85 93 94 97 99 83 88 84 85 55 52 53 70 69 55 47 60 66 78 74 72 98 97 91 90 95 61 41 58 53 66 59 72 74
98 100 100 100 99 98 80 75 60 50 48 41 71 90 96 95 96 99 93 84 78 57 46 45 60 75 56 57 61 59 69 69 86 75 88 100 83 93 85 86 69 66 73 63 62 54 60
94 99 100 100 100 99 84 78 63 51 44 39 60 94 97 97 98 98 98 84 75 59 76 86 75 69 69 59 63 58 70 77 82 83 86 96 95 96 90 76 85 71 67 57 58 71 74
84 94 99 100 100 100 91 82 65 52 42 40 60 91 99 99 99 98 90 86 94 92 80 65 60 54 51 62 57 64 71 71 81 96 98 97 99 100 82 55 44 51 46 54 47 55 64
79 87 100 100 100 97 98 83 65 52 41 41 62 89 93 96 98 98 96 87 73 78 65 66 68 62 64 64 59 70 74 69 67 100 99 97 100 83 64 48 38 38 46 55 64 54 55
71 85 100 100 100 98 99 84 64 52 41 43 48 59 74 93 88 80 89 76 72 52 70 66 68 64 66 72 63 69 84 73 83 99 97 98 94 78 71 64 54 37 40 73 72 58 48
64 85 96 100 100 99 99 84 60 49 43 40 37 44 51 72 92 93 86 81 54 79 98 78 64 75 75 69 94 95 92 87 75 98 86 90 81 88 80 64 50 60 36 41 47 58 72
68 81 88 100 92 100 99 85 57 46 44 37 36 38 46 86 96 86 90 64 60 77 90 82 67 58 70 72 93 95 92 89 72 80 90 95 83 76 64 54 44 53 45 45 50 59 56
71 70 90 100 97 100 98 83 56 45 42 36 37 45 69 83 92 92 84 74 82 97 91 88 68 53 52 55 73 94 99 92 88 90 79 90 75 79 84 53 47 52 55 43 42 48 80
78 68 93 100 96 100 97 82 54 45 38 36 51 66 88 98 94 78 86 89 99 88 69 80 77 55 49 59 75 91 89 83 95 97 99 92 95 76 73 65 50 45 54 87 89 91 79
89 73 96 100 100 100 98 78 50 46 36 40 69 79 82 82 78 79 91 86 87 76 96 71 65 56 64 58 60 54 65 72 66 79 91 96 96 88 69 72 60 54 52 83 65 77 63
98 83 99 100 100 100 96 71 48 44 36 57 78 92 92 75 74 80 94 92 88 93 74 76 72 69 69 60 56 50 53 69 75 68 94 90 94 80 73 73 65 59 70 43 67 42 75
99 88 100 100 100 100 94 64 47 41 37 66 96 92 89 76 81 85 94 86 90 65 55 58 84 74 56 54 54 60 53 49 68 61 58 57 97 83 81 73 58 62 47 63 86 73 48
100 99 97 100 99 100 92 59 48 38 37 83 96 94 87 81 86 93 98 72 63 58 60 61 58 55 47 53 46 52 51 60 60 65 62 54 67 93 75 83 73 69 68 56 53 60 70
89 99 99 100 100 100 83 54 48 38 36 83 89 94 88 83 99 78 74 58 59 57 60 58 60 46 45 48 50 49 49 64 65 58 63 52 71 93 77 64 55 61 73 54 88 68 65
93 96 100 100 100 99 72 50 46 38 36 82 82 97 88 90 98 81 61 61 55 61 58 57 53 48 44 48 59 50 52 60 64 58 63 53 79 97 87 66 60 70 60 56 60 78 76
98 92 100 100 100 96 64 48 45 38 39 76 80 96 98 94 86 76 63 64 67 61 52 50 46 44 46 47 46 57 62 58 61 56 58 56 59 68 90 70 67 72 59 54 72 97 73
90 100 100 100 100 88 58 49 42 37 34 75 70 78 78 92 80 66 56 54 58 62 56 50 51 48 45 50 50 54 57 66 62 60 54 58 79 71 61 47 76 74 63 59 79 70 82
93 100 98 100 100 79 55 49 39 36 32 70 51 60 71 57 54 60 63 62 50 64 56 55 56 48 45 51 56 54 51 56 59 60 53 52 91 79 84 54 56 73 62 57 56 56 65
98 97 100 100 100 73 60 48 38 35 30 53 48 46 50 57 59 60 61 51 51 58 63 62 53 48 56 64 54 53 49 46 46 54 60 59 71 78 81 52 54 72 57 59 55 50 54
100 100 100 100 100 71 57 45 37 32 30 40 33 39 52 57 55 56 53 57 62 63 62 63 62 56 73 67 64 54 46 44 43 44 45 56 58 66 86 62 85 50 37 39 44 43 44
98 97 100 100 100 67 58 40 37 28 28 30 25 36 42 48 50 54 57 57 58 64 63 64 77 76 74 66 58 60 61 54 51 47 49 46 57 67 80 76 57 41 44 43 45 45 32
99 100 100 100 97 66 52 41 36 27 27 28 24 28 37 49 54 51 55 56 63 65 68 66 74 72 76 68 61 66 75 52 66 66 53 53 52 69 78 83 70 54 49 44 44 64 51
99 100 100 100 91 67 50 53 56 27 31 33 26 22 38 48 55 51 53 57 50 56 65 64 63 76 78 74 68 73 60 45 56 56 72 72 67 83 79 85 74 42 46 44 64 66 45
99 100 100 100 85 62 47 58 51 30 33 35 30 30 44 56 68 60 57 56 54 50 62 68 72 74 76 75 74 75 59 54 52 41 48 67 72 75 76 82 88 43 47 52 51 46 47
100 100 100 100 79 52 48 62 47 30 36 41 30 45 39 56 78 71 69 63 60 62 60 78 88 91 99 88 79 75 67 57 50 59 47 65 49 64 53 57 42 42 40 39 40 45 49

GFSGBSN_850_rhum_087.txt.gz
RH
89 86 94 99 100 97 91 76 65 54 49 52 92 89 90 88 85 94 78 86 82 76 57 55 49 48 65 84 72 61 66 66 68 75 71 74 90 98 81 75 66 80 79 79 66 72 68
99 99 100 99 99 100 96 86 72 61 50 52 79 97 88 91 87 91 95 83 83 88 71 54 46 45 80 88 60 59 65 69 69 69 84 82 87 87 87 68 69 60 68 63 61 81 67
93 97 99 98 100 100 100 95 77 68 54 51 84 92 93 95 95 95 97 74 87 89 76 52 53 57 74 67 61 58 64 76 74 62 85 94 85 99 100 70 52 55 66 62 85 74 70
90 94 99 99 97 100 100 99 81 75 57 52 64 93 96 97 91 94 94 69 80 80 71 47 54 65 75 60 54 60 64 78 79 66 64 91 100 95 96 85 62 59 66 82 83 76 72
83 91 95 100 97 99 100 100 86 80 59 51 49 83 98 98 97 100 76 85 74 62 46 43 54 81 69 60 63 56 67 72 81 70 75 89 97 92 94 90 78 74 80 74 89 72 77
94 87 92 94 98 94 99 100 95 82 61 50 42 82 98 96 98 98 89 81 62 59 75 74 76 74 60 62 60 64 69 71 82 78 76 92 98 96 93 94 81 82 78 66 75 80 73
100 92 85 97 99 93 100 100 98 84 59 48 42 86 99 98 97 98 80 84 87 82 76 72 66 61 58 60 48 68 66 70 80 93 96 99 99 100 94 89 79 59 62 62 61 69 78
100 100 87 93 98 98 96 100 100 85 56 46 43 75 98 96 97 98 88 83 75 76 74 65 67 68 62 63 68 74 60 72 76 99 98 98 99 83 73 68 68 57 63 63 59 60 60
99 100 99 89 93 99 100 100 100 84 53 43 44 54 93 92 82 81 82 82 79 55 77 70 66 67 65 65 78 85 75 76 81 100 100 91 96 77 76 68 58 64 61 80 62 75 75
95 98 100 99 77 99 100 100 100 82 51 43 40 42 64 90 90 93 84 84 64 57 98 82 67 71 72 89 87 88 85 90 80 99 96 98 81 78 77 67 61 67 58 75 71 72 95
96 99 100 100 80 100 100 100 100 75 48 44 36 39 60 97 91 85 86 71 56 74 91 78 66 62 66 77 83 76 86 87 92 91 94 99 94 89 85 69 61 63 59 72 78 67 73
95 97 98 100 85 99 97 100 100 68 45 41 36 49 73 95 94 89 76 63 80 89 93 82 73 63 67 82 88 91 92 92 90 84 79 94 88 87 86 72 68 72 61 58 65 67 79
89 94 100 100 94 89 98 100 98 61 45 36 45 66 90 92 85 74 83 90 88 91 70 74 76 58 60 85 88 83 80 93 94 87 98 83 90 79 75 67 73 80 66 95 90 87 79
92 100 91 97 90 81 100 100 93 53 44 36 66 78 95 93 83 84 95 92 86 72 86 68 67 60 75 63 62 79 84 85 71 84 89 93 83 91 77 82 78 78 57 82 83 90 68
98 97 80 100 82 86 100 100 83 48 39 50 76 81 82 74 74 87 90 94 90 88 78 83 74 76 72 63 64 55 67 83 79 71 85 95 93 79 75 81 73 64 78 48 73 56 80
100 96 99 100 83 93 100 100 72 46 36 64 83 87 79 73 77 86 94 82 88 81 70 66 82 75 63 60 61 63 61 59 74 67 68 70 98 81 80 70 60 61 55 65 86 68 58
98 90 100 100 89 99 100 99 58 45 38 82 88 94 82 77 80 93 95 78 70 60 62 63 71 70 52 59 56 57 71 65 64 68 67 63 75 94 78 87 80 72 70 61 60 69 71
98 86 100 99 92 100 100 94 50 41 49 83 85 100 84 80 93 90 92 67 58 63 61 66 65 66 54 52 51 55 68 73 65 64 66 57 81 86 80 65 64 65 74 69 86 70 73
99 82 91 100 94 100 100 86 49 38 46 84 90 98 88 92 97 95 69 66 61 68 68 65 63 50 46 53 62 55 73 69 65 62 70 60 85 97 85 72 65 73 69 69 68 76 79
100 93 100 100 100 100 100 74 49 37 55 79 77 98 100 97 92 92 76 78 75 60 58 52 52 46 49 51 50 59 73 66 65 61 57 57 69 72 84 70 74 80 66 64 74 90 77
100 89 98 100 97 100 99 63 48 36 62 80 76 88 81 98 94 93 65 69 74 71 60 53 54 52 51 55 56 58 69 72 64 62 56 64 81 76 61 56 77 76 66 66 83 72 80
98 96 98 100 96 100 88 56 48 38 65 79 62 80 78 80 71 89 69 67 69 67 62 61 63 50 55 68 65 66 66 69 70 67 59 61 87 81 78 60 60 68 67 67 68 66 72
95 100 96 87 100 100 70 52 49 40 45 73 55 54 57 69 77 80 78 65 58 68 66 66 62 60 72 70 61 57 54 49 49 68 68 69 76 83 90 56 58 66 57 64 63 58 60
99 87 100 82 100 100 67 52 46 37 36 43 43 50 51 71 76 72 62 55 65 68 72 69 65 65 76 62 60 52 48 45 45 53 48 62 66 76 89 69 88 53 39 41 56 54 54
99 93 99 100 100 98 75 71 43 36 33 36 34 39 44 65 64 64 64 73 66 66 69 77 78 74 66 61 68 69 71 59 54 53 59 54 64 75 84 85 65 48 46 48 48 52 50
88 91 97 100 99 98 83 58 40 37 33 34 28 38 45 58 62 57 65 63 80 81 73 76 74 71 69 78 70 74 82 68 74 70 58 57 64 78 86 86 82 50 49 45 46 63 53
91 94 99 95 100 96 86 52 44 35 27 34 26 36 40 53 60 56 63 67 55 69 86 75 66 75 73 85 79 80 67 49 69 71 81 80 77 86 83 92 79 56 48 45 54 52 47
95 92 87 100 100 94 82 68 64 32 30 34 28 36 34 61 70 54 52 55 56 55 85 69 75 77 86 81 76 78 71 61 56 48 70 74 84 85 85 86 90 47 44 47 46 48 48
93 96 86 100 100 89 82 88 94 43 32 35 27 46 34 41 78 64 64 62 60 59 66 80 87 94 94 91 89 86 81 76 63 64 54 60 58 66 65 69 47 44 40 40 41 42 42

GFSGBSN_850_rhum_090.txt.gz
RH
89 87 92 97 100 100 100 100 98 83 72 58 54 73 88 84 91 88 94 80 88 80 84 54 51 47 66 78 69 61 60 57 65 67 69 83 77 82 87 83 76 80 72 81 90 72 80
92 88 88 92 97 100 100 100 100 92 76 64 54 59 63 83 95 96 90 95 78 82 94 60 52 47 70 84 61 62 60 60 72 68 70 78 75 78 98 94 78 66 67 72 94 82 76
100 91 90 90 93 99 100 100 100 99 80 72 53 51 58 81 95 93 97 97 77 88 90 70 57 59 65 56 62 61 59 71 75 70 70 96 92 90 92 80 69 68 79 68 83 87 82
100 100 100 93 91 96 99 100 100 100 86 77 55 50 50 88 96 98 96 87 80 78 75 60 55 62 63 60 58 62 56 71 75 77 64 82 98 88 99 92 80 71 78 96 87 90 93
82 94 100 100 93 93 99 99 100 100 93 79 56 48 51 74 98 94 91 89 75 61 49 44 64 78 68 61 65 58 60 73 76 84 74 83 96 97 91 94 88 76 92 93 99 83 88
95 83 73 97 100 97 99 98 100 100 98 82 55 47 48 54 92 88 95 77 58 69 77 74 74 84 61 64 63 59 68 69 76 80 90 93 99 96 95 98 89 93 84 71 92 89 82
94 81 54 64 95 100 98 99 100 100 100 83 54 46 46 47 57 82 86 81 82 76 75 68 66 65 59 58 48 58 71 66 76 88 92 98 94 99 97 93 85 64 67 73 77 82 73
83 44 47 69 74 96 100 96 100 100 100 82 54 46 42 41 52 99 87 84 75 72 73 68 68 67 64 67 72 71 71 73 80 100 97 99 96 84 90 82 75 63 66 68 69 66 69
95 82 82 81 99 85 98 96 95 100 100 78 50 45 38 40 65 82 85 80 78 64 79 72 71 68 63 75 85 85 80 84 95 100 100 99 89 75 83 85 75 67 66 64 80 79 74
96 96 85 53 99 96 93 100 93 100 100 71 46 42 36 64 82 88 84 84 74 56 92 81 68 65 71 82 84 77 84 93 97 100 96 98 82 77 90 74 57 70 57 53 76 90 100
97 92 84 70 90 100 97 100 93 100 100 67 45 37 36 71 86 89 83 79 58 75 75 58 68 61 72 81 84 72 84 93 96 97 93 98 87 84 82 77 60 68 61 61 72 82 95
96 100 93 96 97 100 100 100 91 100 100 59 43 36 46 86 87 85 80 62 77 79 86 78 70 68 77 79 80 81 87 92 93 92 84 93 85 89 91 77 68 68 72 75 81 90 96
100 98 97 90 96 100 98 100 90 100 97 51 38 49 74 88 86 80 67 84 86 87 64 75 73 64 68 87 83 85 84 89 96 87 96 91 95 85 79 77 70 69 82 99 98 98 77
99 97 97 86 99 95 98 100 94 100 87 45 52 70 88 88 81 79 89 85 87 75 84 68 71 67 74 64 61 82 83 88 77 80 90 94 96 86 76 89 93 86 81 85 90 89 69
97 93 96 100 100 94 97 100 100 100 67 47 71 86 95 93 78 88 83 94 84 85 78 84 74 81 72 64 68 61 71 84 80 81 90 92 92 75 77 79 82 81 76 51 73 69 76
94 97 99 100 98 100 95 99 100 95 51 66 70 81 82 77 80 87 90 85 88 73 73 69 82 71 66 60 63 64 66 69 72 71 70 74 98 80 78 67 62 58 53 66 83 70 64
94 99 100 100 98 98 100 100 100 72 51 72 69 80 85 78 83 91 97 90 77 66 60 68 74 79 58 61 62 60 78 69 69 71 69 66 76 85 75 82 86 72 67 68 66 70 65
92 99 99 99 91 98 98 100 99 61 72 78 89 98 83 83 96 97 95 76 62 67 65 66 66 71 54 56 53 62 82 79 68 66 70 69 78 89 80 67 65 66 75 68 83 69 79
96 98 100 92 87 98 100 100 86 54 70 76 97 99 90 90 91 96 85 70 66 71 70 71 70 56 49 56 66 70 78 72 66 69 73 63 86 89 80 66 64 72 68 69 72 78 82
92 99 98 97 100 99 100 100 73 50 66 64 77 97 96 100 97 91 83 80 80 63 66 59 54 49 51 54 54 70 76 69 66 63 58 59 76 69 86 71 75 78 71 69 76 90 76
98 98 98 100 83 100 100 97 64 46 69 63 70 92 82 96 98 93 75 78 82 76 61 53 56 53 53 62 59 75 78 74 67 65 58 68 85 75 64 59 76 76 72 71 84 74 81
99 98 100 99 100 97 100 85 50 50 75 74 78 87 83 85 81 94 86 82 74 70 67 65 64 56 54 67 61 70 75 74 73 67 61 66 89 77 75 61 62 67 66 68 72 69 74
95 97 99 93 99 100 100 68 49 58 78 75 59 71 64 84 91 90 82 75 71 72 69 62 58 72 70 66 58 58 56 54 58 71 71 70 78 83 88 67 59 70 57 62 64 61 63
100 97 99 96 98 94 97 69 61 51 78 65 49 61 56 84 85 79 69 60 74 68 78 75 63 71 72 63 57 54 50 50 52 54 58 75 76 82 90 70 87 53 43 44 59 57 54
94 97 99 98 100 99 96 81 85 50 76 56 45 46 46 83 72 67 72 79 72 70 75 82 74 72 61 60 71 73 76 61 58 63 62 60 75 81 86 87 66 49 46 48 45 48 55
94 95 97 99 99 100 90 77 64 54 72 55 42 43 46 63 68 65 74 71 86 85 79 82 72 72 69 75 74 79 88 71 79 70 64 66 71 76 90 87 82 50 51 47 45 69 48
92 91 100 92 96 100 94 84 68 52 65 57 42 47 43 58 65 64 72 71 68 78 89 77 70 76 75 85 83 83 73 60 84 80 80 81 83 86 86 84 80 59 51 47 60 52 49
85 98 93 97 93 100 99 92 64 50 46 46 38 48 35 65 74 60 58 58 64 71 89 73 75 75 86 81 78 81 75 65 59 64 75 77 87 90 88 90 91 50 48 51 45 50 51
99 83 96 91 94 100 97 71 54 53 51 46 41 44 39 51 92 74 66 63 59 64 67 80 83 91 89 90 88 88 82 78 68 66 61 66 66 69 74 75 60 56 54 65 66 67 67

GFSGBSN_850_rhum_093.txt.gz
RH
100 100 99 93 99 97 98 98 100 100 100 93 78 62 58 44 70 87 90 89 84 89 83 89 51 46 59 80 57 60 64 59 62 72 72 76 83 87 87 85 73 81 72 61 84 96 83
97 97 100 100 100 98 100 99 99 100 100 99 86 66 57 43 72 90 89 90 95 76 88 93 56 50 57 76 56 62 61 58 68 73 75 70 80 82 82 85 82 64 68 67 72 93 84
99 94 97 98 98 100 100 99 99 100 100 100 91 71 58 47 80 92 86 94 95 71 86 89 58 58 59 39 60 63 60 58 68 72 71 64 89 81 77 87 75 68 82 71 75 87 93
100 99 98 82 85 90 94 99 99 100 100 100 97 75 58 47 66 81 94 95 70 81 80 71 53 60 59 60 60 61 64 56 71 74 76 83 91 96 98 84 89 79 78 87 74 88 90
94 94 95 96 89 55 72 85 100 100 100 100 99 82 59 49 58 59 80 73 71 72 51 45 55 84 70 60 60 65 60 67 74 76 79 86 96 98 97 97 88 82 92 83 86 84 84
94 90 92 89 94 69 45 48 79 100 97 99 100 89 60 54 46 44 81 68 56 69 64 66 77 92 63 61 62 61 62 71 70 78 89 97 99 99 99 96 91 76 96 84 78 94 90
93 94 93 92 79 92 58 97 80 96 100 100 100 88 59 56 40 42 67 65 73 75 78 66 65 66 60 63 61 59 64 66 71 88 99 92 100 98 100 95 87 66 81 95 88 82 86
94 93 93 92 98 95 81 84 98 84 100 100 100 91 58 48 40 58 77 79 73 66 72 68 69 69 65 69 69 72 72 69 82 100 97 98 98 85 83 89 92 75 76 77 82 85 76
92 89 94 93 94 87 85 62 100 100 100 100 100 92 54 42 48 72 76 74 72 67 79 73 71 68 63 73 82 74 79 92 95 100 100 89 83 78 87 96 97 77 72 74 82 83 77
89 90 90 93 94 97 82 55 95 99 100 100 100 85 50 48 64 76 79 78 74 61 87 65 69 67 70 78 73 75 92 98 99 100 97 90 84 87 97 95 72 79 68 75 84 93 99
87 88 87 93 100 96 67 57 91 99 100 100 98 74 44 70 75 82 76 80 62 64 57 44 66 63 73 80 79 76 94 99 97 92 96 98 92 98 98 91 69 75 64 78 79 93 94
91 86 89 91 98 95 77 59 87 98 100 100 97 70 43 87 81 82 82 66 60 75 50 76 66 64 76 74 80 85 97 98 96 83 83 93 86 88 92 79 70 69 75 83 94 90 97
98 92 99 100 100 98 94 94 72 99 100 100 91 65 47 79 81 82 71 67 84 66 58 60 63 67 70 79 80 87 88 88 98 94 98 91 97 80 83 79 71 75 76 98 96 97 88
98 96 98 100 98 99 99 95 72 100 100 100 79 65 91 83 86 72 71 81 72 72 88 68 71 73 78 66 62 75 75 89 80 81 95 97 92 92 79 88 86 86 72 87 91 95 76
98 98 99 100 98 97 98 98 97 100 100 93 80 87 97 92 81 71 79 94 73 84 75 81 75 84 70 65 68 64 78 87 83 84 82 92 99 74 78 80 82 74 87 54 71 68 78
98 99 83 84 92 98 100 100 100 100 100 84 76 100 100 90 82 92 90 86 91 71 73 67 76 70 65 62 64 66 76 74 78 72 71 75 94 78 75 69 73 67 50 67 81 75 57
96 92 90 97 100 99 100 98 100 100 97 90 70 86 100 89 89 88 98 89 83 72 63 72 77 80 67 62 62 73 86 74 73 70 67 68 75 82 70 82 85 70 68 71 69 70 63
97 88 95 98 100 100 90 98 98 100 92 92 81 98 90 87 98 97 98 84 67 70 69 67 69 67 55 58 60 79 84 84 70 67 72 71 78 96 85 71 68 69 77 67 80 69 84
93 89 89 96 100 98 83 100 100 98 79 83 98 100 100 94 96 96 85 75 67 72 70 74 72 64 51 57 74 78 82 72 70 70 69 62 83 91 77 66 64 70 70 75 74 79 82
94 92 94 97 98 86 98 100 100 91 83 63 79 98 100 100 98 86 86 83 83 65 68 66 55 50 53 59 65 77 80 72 68 66 63 62 77 68 81 66 73 77 72 72 76 90 78
92 93 98 96 100 92 95 99 100 90 81 61 68 93 86 96 95 91 84 81 85 79 63 58 58 55 56 65 64 80 80 76 68 67 60 68 84 77 66 64 75 74 73 76 87 73 82
89 95 99 96 98 99 100 100 98 86 83 69 75 87 81 90 87 95 89 85 80 72 67 66 65 58 57 64 61 74 79 76 69 68 64 72 93 76 77 66 66 67 65 66 74 73 76
73 99 97 99 100 100 100 100 93 88 86 66 70 73 65 89 95 95 88 84 73 75 72 60 62 67 66 65 60 59 57 60 61 67 72 73 79 83 86 74 62 68 52 60 63 64 63
84 97 98 100 99 98 100 98 94 92 83 58 61 62 67 95 90 88 76 68 77 68 81 79 62 64 69 59 56 51 51 55 58 64 62 75 80 83 92 72 75 49 48 48 58 54 61
86 99 98 99 96 100 96 96 99 91 85 51 61 47 57 94 80 72 77 86 79 78 85 82 75 73 62 57 72 71 77 61 63 72 66 68 78 88 87 88 65 50 47 49 50 52 53
90 95 100 98 99 100 98 90 93 93 89 58 52 46 54 71 78 72 80 75 87 87 84 81 76 73 65 76 73 77 88 71 80 74 66 70 73 73 90 89 81 50 52 49 45 69 44
86 81 96 99 96 100 98 97 90 88 96 86 49 48 45 65 73 69 79 76 75 81 92 77 77 74 72 83 84 85 78 68 85 82 82 83 84 86 87 83 77 58 54 47 64 56 60
83 91 90 100 96 99 100 98 96 85 86 94 59 53 41 69 80 67 63 63 74 71 88 76 74 73 85 79 76 82 76 70 65 66 74 76 88 90 89 91 91 55 50 55 64 69 69
96 99 81 91 100 94 100 95 87 78 77 81 56 52 48 54 90 80 75 69 69 69 67 83 80 86 80 88 86 89 82 79 71 71 64 72 70 77 76 75 66 66 56 72 81 86 85

GFSGBSN_850_rhum_096.txt.gz
RH
99 95 98 100 99 100 98 97 99 98 99 99 100 100 95 79 72 82 91 88 83 72 86 90 86 52 52 76 52 59 76 66 58 67 79 76 78 88 92 84 81 90 77 70 63 73 83
93 100 98 99 94 97 98 91 94 96 96 100 100 100 99 96 82 90 92 86 90 79 75 89 88 57 54 73 45 59 62 61 58 70 75 74 77 77 85 80 85 70 71 68 68 66 90
94 98 93 90 92 96 94 78 81 86 86 100 100 100 100 89 84 95 96 85 82 62 72 90 92 60 64 40 55 61 64 61 57 70 74 70 76 90 84 86 70 74 83 69 66 72 84
92 91 88 96 97 91 94 91 83 55 79 97 100 100 100 87 73 84 86 84 52 54 75 82 81 61 49 48 60 60 62 62 59 75 77 77 83 99 89 80 85 82 78 93 69 77 81
99 96 93 94 94 92 94 94 67 73 68 94 100 100 100 94 73 70 71 69 65 62 67 58 58 72 66 63 61 61 65 66 69 72 75 88 89 97 89 96 91 92 94 95 90 73 89
93 92 92 95 95 94 92 94 94 46 91 96 98 100 100 92 73 64 74 69 48 51 52 57 77 89 60 58 59 62 61 61 72 73 86 98 100 98 93 99 89 98 90 87 78 88 84
95 96 91 92 94 93 95 94 94 70 81 99 100 100 99 92 76 55 76 57 64 79 89 65 60 63 58 66 67 63 63 68 70 87 98 98 100 98 87 84 80 81 82 90 85 86 87
99 100 94 91 91 94 94 95 97 83 55 99 99 100 99 87 73 60 66 66 68 65 68 63 67 69 68 68 72 76 77 75 86 88 88 96 99 79 83 85 88 80 90 84 96 84 85
96 98 92 94 94 91 90 94 99 73 61 99 100 100 100 86 64 70 69 71 73 67 76 72 70 73 67 73 80 80 86 91 90 99 92 97 85 78 97 96 95 80 84 92 91 89 85
98 95 96 95 97 92 88 91 99 86 49 86 99 100 100 80 68 70 79 74 71 61 82 50 70 67 68 80 69 76 85 98 100 100 98 99 79 77 100 93 73 92 71 81 90 96 99
98 98 100 76 86 94 95 99 99 80 36 55 99 100 99 79 69 80 70 73 65 59 44 40 64 65 71 83 81 84 96 100 99 94 98 98 96 97 100 94 76 82 74 76 83 92 91
100 99 99 95 87 95 93 98 100 94 50 50 100 100 99 82 74 77 75 68 53 74 42 64 64 64 73 77 82 90 98 100 98 94 88 98 99 95 95 84 78 71 73 84 87 85 91
100 100 98 100 99 88 98 94 95 95 94 87 100 100 99 76 78 83 71 55 84 65 51 60 63 66 72 76 75 86 89 90 96 92 96 89 93 84 88 81 79 75 76 97 92 92 87
98 99 99 97 85 86 85 95 90 91 97 86 100 100 92 92 81 80 57 77 78 65 83 70 68 68 77 67 63 68 76 92 80 77 95 93 95 96 81 95 94 89 74 88 91 94 80
99 100 93 89 81 83 95 98 98 98 98 99 100 99 98 96 86 68 69 94 74 78 72 79 70 72 66 63 71 67 82 88 82 85 78 95 99 72 83 83 80 86 83 56 76 68 88
95 97 89 91 91 89 98 99 100 100 88 100 98 100 100 96 87 74 87 88 90 69 72 60 66 69 65 64 67 70 78 76 83 74 72 76 93 74 74 67 70 63 53 68 84 75 58
88 84 87 93 87 93 99 99 99 99 99 100 99 99 100 93 96 82 98 89 80 72 65 64 76 77 67 63 64 82 89 75 78 76 69 68 76 81 69 89 87 76 71 72 71 72 64
88 91 93 90 89 99 99 99 94 99 99 99 98 100 100 98 95 90 95 88 70 76 72 68 69 60 59 59 73 82 89 88 76 72 75 72 81 99 90 74 71 71 81 66 79 70 85
89 97 97 95 100 100 100 100 100 99 91 85 100 100 100 100 97 97 87 79 70 73 72 72 71 64 54 57 74 79 83 71 72 74 72 61 83 90 76 66 62 73 75 75 76 79 82
94 94 91 97 99 100 96 97 98 95 89 76 95 99 99 98 96 83 90 86 83 67 68 69 61 55 56 63 75 80 82 73 71 71 67 62 78 67 82 68 74 74 74 75 76 89 78
92 86 98 100 100 77 71 96 99 99 90 80 84 94 86 94 94 86 81 82 87 81 66 68 58 56 59 66 70 84 82 77 68 67 63 67 86 80 71 71 74 74 73 78 86 72 81
94 82 100 100 100 98 100 100 99 97 88 75 77 92 77 87 82 87 88 86 81 77 72 68 65 58 56 63 59 74 79 76 68 66 67 73 94 75 80 72 69 68 64 68 75 75 78
54 98 98 99 100 96 100 100 100 96 91 79 78 78 68 80 95 92 92 86 76 76 74 64 62 66 66 64 61 61 62 65 67 66 75 75 79 81 88 76 62 65 53 59 64 65 64
54 96 99 99 98 96 100 100 100 96 90 62 69 66 72 95 92 90 83 72 81 70 81 78 64 60 65 59 53 51 54 59 62 71 68 76 82 84 92 67 59 46 48 50 57 56 57
76 90 97 100 100 96 98 97 99 97 74 60 53 51 69 90 86 78 80 88 83 83 89 83 76 74 62 55 70 72 77 60 69 79 75 74 79 88 87 88 58 54 51 50 52 52 59
80 82 98 88 100 99 99 97 100 93 83 54 48 54 64 76 80 80 84 77 89 90 86 79 82 71 63 77 71 73 83 71 77 74 67 71 76 78 88 87 71 48 56 51 46 66 70
78 81 93 99 96 99 97 98 99 93 84 74 50 46 51 72 80 77 82 79 76 82 93 79 79 73 67 82 83 84 76 68 82 80 82 84 85 87 83 83 76 58 59 50 66 60 74
90 89 90 98 100 99 97 96 95 91 85 100 76 51 45 75 88 73 67 73 76 73 87 79 74 71 82 78 75 82 78 77 72 69 75 79 88 89 90 92 89 63 54 57 74 76 74
97 100 87 91 99 98 100 98 96 91 93 92 89 53 57 60 90 86 82 76 74 71 70 84 76 81 74 88 82 88 79 80 72 72 68 74 68 78 77 76 65 69 73 76 75 71 80

GFSGBSN_850_rhum_099.txt.gz
RH
99 97 98 99 92 94 100 100 99 89 91 91 89 97 100 99 100 80 70 92 90 87 78 88 94 84 51 60 42 57 80 78 63 58 64 77 77 81 80 85 79 82 75 71 66 62 65
92 93 97 92 89 93 93 92 100 98 75 81 84 96 100 100 98 88 74 90 84 94 84 84 99 80 55 61 37 59 62 62 56 63 73 78 75 73 87 84 84 69 60 67 65 72 68
94 93 93 94 97 96 97 93 95 93 89 74 62 82 100 100 99 89 86 98 78 92 82 88 98 81 56 40 44 58 62 60 62 57 69 74 74 76 89 82 71 71 79 75 66 62 74
91 93 94 92 93 92 99 94 91 92 91 92 84 100 100 100 100 94 72 80 76 88 90 86 89 72 44 44 46 59 60 61 62 61 72 78 84 96 100 83 81 80 74 88 66 58 74
94 90 93 93 94 96 93 94 93 91 81 53 78 99 99 100 99 94 79 62 81 94 89 85 74 52 58 59 62 58 64 66 66 68 72 85 96 100 100 97 80 72 89 96 76 56 89
86 85 84 88 98 93 93 93 96 91 78 25 80 97 97 100 98 90 83 77 86 79 67 57 61 82 55 56 60 62 63 66 67 74 81 96 99 99 96 99 86 90 83 77 81 79 75
90 87 88 88 98 94 92 92 94 98 94 29 63 96 100 100 94 94 87 82 82 97 72 62 60 58 57 64 68 67 67 70 74 86 83 95 100 99 89 80 77 100 69 68 74 81 77
94 99 98 97 96 98 91 95 95 97 99 64 76 93 100 100 93 82 94 60 68 62 71 68 68 66 66 68 73 71 77 79 90 78 82 95 100 95 66 69 80 96 77 81 75 78 75
96 97 99 99 99 97 91 97 90 92 96 95 99 96 100 100 96 89 82 55 76 66 70 71 69 70 69 72 77 77 79 90 91 92 89 97 89 92 95 84 87 85 82 87 80 86 81
95 94 99 99 99 98 95 73 90 80 89 91 100 100 100 100 98 84 84 67 74 66 79 50 72 69 70 80 76 73 86 96 98 100 100 100 96 96 96 89 92 93 75 69 85 88 98
96 98 99 98 100 96 98 92 85 98 80 79 99 96 100 100 88 87 74 78 70 60 47 37 65 68 73 85 88 82 87 100 98 98 100 99 96 100 95 85 81 75 76 78 84 87 87
98 98 100 99 99 99 98 87 84 89 71 87 97 97 100 98 91 80 77 74 60 73 41 64 66 64 69 82 82 86 97 100 95 98 98 99 98 89 91 87 79 71 81 84 82 80 89
100 100 98 100 99 92 90 89 91 86 100 99 98 99 100 96 88 82 75 63 82 65 50 64 68 63 69 73 71 84 84 88 94 95 96 100 98 90 90 86 81 74 72 91 83 88 79
100 99 100 99 98 89 92 98 91 96 100 90 97 100 100 98 83 82 68 76 71 61 75 69 67 63 68 68 64 71 80 91 81 81 92 96 98 94 85 90 88 85 69 80 85 87 82
99 100 99 86 85 85 81 87 94 98 89 91 98 100 100 96 89 80 77 90 73 74 69 80 62 62 62 61 72 67 82 92 83 87 84 89 99 79 86 84 85 79 79 58 73 68 84
100 95 83 93 96 89 84 99 98 99 90 95 100 100 100 97 95 74 88 87 89 66 70 62 55 64 64 65 68 73 82 80 89 79 75 72 98 85 74 81 75 65 54 64 80 71 71
94 84 95 98 94 85 96 100 96 100 96 100 98 98 100 100 94 84 98 91 80 72 67 62 72 75 65 66 66 87 94 75 84 81 69 67 77 82 70 89 97 80 74 72 69 68 58
84 96 99 98 92 97 98 99 99 90 96 100 98 99 100 100 86 88 91 90 72 76 74 70 68 61 58 61 79 86 92 90 76 78 75 73 81 98 90 73 74 74 82 65 76 68 80
94 99 94 96 100 100 100 99 82 72 86 95 99 99 100 99 91 87 88 82 74 75 74 70 71 65 53 65 78 82 83 73 73 75 75 63 81 87 74 60 59 79 79 75 74 73 80
96 93 99 100 100 92 97 100 100 97 94 74 96 99 100 98 88 83 92 88 85 69 70 70 61 56 59 71 78 81 82 75 72 71 71 61 80 67 78 68 76 75 79 79 75 81 76
94 100 100 96 72 70 99 100 99 93 90 82 98 99 90 97 96 91 83 82 87 80 68 65 60 58 60 68 74 87 83 74 66 67 66 66 86 81 78 74 74 75 77 78 86 72 74
91 99 100 81 97 78 100 100 97 90 91 89 85 92 80 78 71 87 86 84 81 78 72 69 65 59 58 62 58 76 78 75 72 65 71 74 93 75 82 70 68 68 65 71 75 76 76
92 100 100 91 100 100 100 98 100 95 93 81 78 76 71 76 72 84 78 83 78 76 74 65 62 67 70 66 63 64 66 69 70 67 76 76 79 78 86 75 59 64 57 62 66 67 65
78 98 100 98 100 99 100 99 95 95 84 62 65 68 71 93 77 68 82 76 80 72 80 78 60 61 63 57 56 55 58 63 66 75 73 78 82 84 90 58 53 48 50 49 56 65 66
71 91 100 100 98 98 100 99 95 87 55 50 53 59 74 82 81 81 80 89 85 82 88 81 79 71 61 57 70 71 76 61 70 79 77 75 79 86 84 82 49 55 55 52 50 70 79
82 83 94 100 87 100 99 99 90 67 53 47 49 64 72 80 81 86 86 81 88 90 85 83 84 70 63 74 68 70 77 69 74 73 66 70 74 76 88 82 51 43 57 55 45 69 77
91 94 89 99 96 93 98 98 85 71 68 77 52 47 59 77 86 82 84 80 78 82 92 84 77 70 63 79 79 82 73 67 78 77 81 84 86 87 84 89 75 59 58 53 66 52 78
83 100 87 91 100 96 95 97 92 87 73 80 72 53 48 78 87 77 73 78 78 75 85 79 72 69 79 74 75 82 79 81 75 70 77 78 86 90 90 93 76 64 58 64 69 75 72
96 99 90 85 97 98 94 98 94 88 76 77 77 54 60 62 86 86 85 80 76 73 73 81 72 78 72 86 81 87 78 81 75 72 71 77 68 75 76 73 60 70 69 76 63 59 72

GFSGBSN_850_rhum_102.txt.gz
RH
97 95 92 92 85 90 94 94 92 96 96 95 88 78 84 96 100 100 99 88 80 86 86 77 95 88 71 70 49 54 90 83 79 59 59 67 62 56 48 42 47 46 38 39 48 49 51
99 97 95 93 91 92 85 96 99 92 92 93 96 94 93 80 100 100 98 88 74 82 93 75 86 92 75 54 36 47 63 70 66 60 75 77 68 67 59 55 52 35 39 36 46 51 54
92 89 83 80 77 82 80 81 90 92 90 92 99 99 100 83 100 100 93 89 73 80 87 76 98 96 83 54 39 58 58 63 60 65 68 74 78 71 70 60 56 51 52 44 43 42 51
83 85 81 83 84 79 81 92 87 98 95 91 94 85 94 99 100 100 92 75 84 70 83 76 98 95 65 40 42 57 62 62 60 61 65 78 83 81 85 77 74 64 52 56 36 47 50
81 81 83 82 83 84 87 86 87 90 96 93 90 90 91 88 100 99 86 80 70 83 90 89 98 88 52 52 58 64 62 66 72 67 68 87 93 89 99 100 97 60 52 52 41 43 49
86 92 91 97 91 86 83 91 92 91 97 96 83 74 72 98 100 96 80 78 78 93 91 88 67 78 66 56 61 59 61 64 72 79 78 86 88 94 100 100 74 53 56 41 51 48 55
91 93 93 95 100 98 98 90 92 87 92 99 76 64 99 100 100 90 81 89 70 89 82 68 63 63 56 59 65 70 67 72 76 73 65 62 100 94 96 74 60 82 50 45 47 39 55
98 98 96 89 84 91 97 96 94 78 90 84 90 94 99 100 100 87 76 66 63 64 72 62 70 70 65 65 69 76 72 71 73 73 58 92 97 75 64 63 60 99 68 51 55 54 48
97 96 100 98 90 96 98 92 88 78 82 79 76 90 94 100 99 89 82 72 71 67 65 72 73 73 71 70 70 73 77 88 78 83 80 95 82 93 88 66 68 86 67 50 63 68 61
100 98 99 99 96 97 90 96 96 89 84 85 85 95 100 98 99 94 99 73 72 67 78 55 68 70 76 80 72 74 80 92 96 100 99 100 92 98 92 69 68 70 53 50 62 64 74
99 96 100 98 99 93 93 98 98 91 80 85 91 94 100 100 89 93 84 63 73 65 69 49 63 68 74 78 78 80 85 100 100 100 100 99 93 95 93 71 62 50 50 62 63 63 62
97 96 97 100 98 100 94 94 93 94 77 88 89 90 100 100 91 87 67 73 67 75 55 77 62 62 67 74 76 85 98 99 99 99 96 96 90 91 78 55 65 68 76 71 61 64 82
98 100 100 100 98 97 95 99 96 96 92 96 83 80 100 99 92 86 78 72 89 73 54 66 66 58 53 57 60 72 77 74 87 100 100 100 97 85 81 74 71 71 89 92 79 81 78
99 100 98 95 89 92 98 98 96 93 96 92 79 99 100 99 90 79 79 67 80 52 67 59 58 52 56 58 58 58 68 68 61 78 94 94 97 97 82 77 67 63 55 64 65 60 66
88 75 78 85 88 96 96 99 95 99 98 83 100 100 99 96 91 86 62 90 76 60 55 60 55 48 55 52 60 55 62 70 66 68 70 72 100 88 73 72 69 60 65 51 59 57 54
85 84 89 89 92 89 81 97 98 98 94 88 100 100 100 98 99 80 71 79 80 57 59 54 45 50 50 56 56 57 60 66 72 64 60 66 99 88 79 65 61 54 48 56 62 58 58
97 81 82 80 80 77 91 99 100 97 93 98 99 98 100 100 98 71 81 73 71 68 65 54 50 54 53 56 60 66 70 63 68 64 53 56 60 88 70 74 77 59 53 53 48 46 37
99 99 100 100 98 100 98 99 100 93 88 100 97 100 100 99 83 70 67 74 70 62 73 64 52 51 50 55 63 65 68 72 69 68 57 57 59 86 74 62 60 62 61 49 53 50 55
100 100 100 97 96 96 100 89 85 96 92 97 98 100 100 91 85 69 74 77 72 66 66 62 60 54 48 58 63 68 69 64 68 63 61 50 58 70 62 54 51 62 62 56 53 55 64
100 100 75 61 67 70 69 68 59 79 98 75 91 98 99 96 76 57 79 77 68 71 65 63 57 51 54 60 60 66 66 64 71 64 71 53 58 56 57 67 66 63 59 57 62 77 44
100 95 73 91 97 86 88 77 66 82 81 62 91 94 95 99 77 69 78 71 68 65 65 59 53 52 53 55 60 65 67 59 56 61 57 51 74 72 63 61 65 62 62 58 81 58 55
100 100 97 94 97 93 87 89 86 78 71 76 96 81 78 67 66 72 79 73 58 70 65 59 55 54 50 52 54 55 61 58 61 49 56 53 74 65 64 51 53 56 54 56 57 60 58
100 100 100 88 89 95 94 91 87 84 83 86 76 76 65 70 66 76 65 70 63 64 70 65 52 52 58 62 61 66 64 62 59 56 58 57 59 60 70 55 46 48 50 51 54 54 55
91 100 100 100 98 98 92 90 87 81 81 57 66 64 63 74 66 63 68 71 67 66 64 70 62 51 63 60 56 55 54 53 51 55 60 56 60 61 60 42 47 46 43 44 51 58 55
73 90 99 100 100 96 91 84 77 54 49 54 60 66 70 69 62 66 74 74 76 77 73 73 81 72 59 57 53 55 52 51 56 58 55 51 52 59 50 44 46 50 49 47 46 56 64
76 76 90 98 100 100 91 86 71 52 47 54 64 69 72 70 70 84 77 76 66 69 68 83 81 69 62 52 48 52 46 57 51 58 55 54 50 45 62 49 32 42 52 53 42 48 67
85 86 80 90 94 100 98 89 68 52 50 48 52 59 66 77 84 85 75 70 78 70 69 77 74 68 60 53 56 56 48 58 54 56 61 62 62 59 56 57 44 41 50 54 54 40 68
91 82 85 84 89 99 98 90 81 64 62 54 51 58 58 82 86 78 76 80 79 74 61 77 63 63 60 58 57 57 54 55 60 57 59 53 56 59 67 67 51 52 56 51 52 72 63
88 78 72 76 84 92 100 95 89 80 72 69 56 51 63 63 86 84 82 78 73 70 74 77 73 73 68 60 58 58 55 59 54 46 59 56 47 45 51 41 52 63 56 73 66 56 71

GFSGBSN_850_rhum_105.txt.gz
RH
95 95 93 85 86 75 72 77 80 94 95 92 94 99 100 99 89 100 100 100 90 69 81 84 79 88 81 72 51 56 63 90 86 73 52 48 46 37 35 25 26 30 30 32 33 35 37
99 96 84 82 80 83 79 83 74 77 87 95 91 97 95 100 93 100 98 98 82 68 87 84 77 79 84 63 44 56 68 73 59 61 54 55 51 46 46 38 36 29 25 25 27 29 38
98 88 82 84 83 83 80 87 85 78 83 88 89 91 74 92 83 99 100 94 76 74 82 84 83 92 88 62 45 55 59 58 60 61 55 55 57 56 46 46 42 42 45 33 29 31 35
94 80 82 78 79 77 75 81 81 85 74 88 94 77 56 77 100 100 99 92 84 70 58 62 94 98 74 54 52 52 56 60 68 67 69 65 69 62 58 64 58 60 55 59 31 27 31
89 87 85 81 82 85 83 80 77 86 89 83 83 59 42 78 94 100 99 86 79 78 76 83 98 94 52 56 55 51 54 60 61 72 77 71 75 66 76 80 82 60 70 50 39 21 30
96 85 83 83 90 87 85 84 85 84 88 80 83 42 96 63 92 99 98 84 87 93 91 92 87 70 58 50 58 58 61 61 60 60 68 73 73 75 80 94 76 82 69 40 38 24 30
99 90 87 89 89 91 85 86 89 88 86 74 75 41 98 100 100 100 88 92 86 94 94 60 55 54 50 55 61 64 63 67 64 60 58 53 87 81 64 64 79 69 51 45 39 20 44
99 100 98 99 99 99 94 94 93 83 81 71 74 46 99 100 98 98 93 78 67 75 75 72 72 66 65 66 60 64 73 69 65 80 60 86 90 56 89 78 91 96 62 53 37 36 38
98 97 96 97 93 99 97 99 89 87 77 68 63 55 90 100 100 94 89 83 61 63 54 70 70 65 63 70 60 61 77 74 70 90 98 95 74 87 96 73 70 63 63 53 95 43 36
98 92 98 97 95 96 98 96 92 85 81 70 58 82 73 96 100 100 94 80 65 63 81 60 60 63 71 73 71 70 78 81 96 98 100 100 80 93 95 73 51 50 36 73 81 52 67
93 96 97 94 99 98 97 94 89 85 80 68 68 84 100 100 95 100 96 69 68 64 71 49 57 70 71 78 66 79 89 99 100 99 100 94 83 92 88 56 44 55 42 50 58 53 64
91 98 96 97 94 92 90 91 92 88 80 66 58 86 100 97 97 94 68 66 62 88 69 82 54 61 64 65 61 77 92 98 98 99 96 85 80 81 68 53 48 55 59 93 90 79 64
80 74 76 83 77 86 94 97 99 96 77 74 64 80 99 100 97 77 71 74 93 74 44 68 67 53 48 51 51 58 69 95 95 100 100 97 87 73 72 66 74 98 97 93 88 92 71
88 87 76 79 88 94 97 96 95 96 86 84 72 84 85 100 99 89 82 68 84 48 57 47 50 48 50 49 49 48 55 94 78 74 77 88 94 96 67 80 93 98 71 78 92 82 71
99 99 84 86 88 98 95 95 97 92 85 81 91 100 100 100 97 89 72 85 82 56 45 52 50 46 48 44 49 45 50 61 58 56 88 94 99 71 61 60 60 57 60 47 53 39 57
100 100 97 84 85 92 85 84 93 91 84 86 99 99 100 100 99 81 67 73 69 48 49 42 41 40 41 44 45 44 47 54 63 52 59 69 93 69 62 55 51 49 42 57 60 52 57
96 90 96 99 88 82 84 98 96 82 90 99 96 98 100 100 98 73 78 65 55 53 59 49 40 41 41 43 47 46 50 53 55 55 46 57 69 77 56 62 71 56 50 42 43 40 36
99 66 73 83 95 91 97 94 87 72 97 97 92 100 100 98 90 60 52 66 66 51 61 51 42 41 42 45 47 46 55 56 56 53 51 46 56 75 67 50 47 53 52 42 59 39 38
87 60 62 68 65 69 84 63 74 82 84 82 98 99 99 97 83 55 59 63 62 52 53 49 47 42 42 47 50 51 51 56 56 54 56 45 50 75 59 48 43 48 42 40 43 59 54
96 75 66 68 54 49 61 61 72 71 76 62 91 99 98 95 62 47 65 61 52 62 55 51 46 43 43 44 44 52 49 52 57 51 64 50 50 54 64 70 60 55 47 42 61 72 42
98 88 66 57 52 43 54 70 77 65 77 65 79 80 78 82 64 53 67 54 52 53 55 49 44 43 43 42 43 47 48 43 45 49 47 43 65 70 52 50 58 50 49 46 67 44 54
98 99 85 64 71 62 56 62 70 80 72 77 70 65 74 62 56 55 67 60 46 54 53 46 45 46 39 47 48 46 46 44 49 39 44 42 64 60 53 42 44 45 42 42 46 45 45
92 100 97 90 88 91 92 92 83 79 84 82 74 64 52 64 52 57 53 54 49 51 58 55 44 41 49 56 51 50 49 48 48 48 45 45 49 55 61 43 39 43 47 44 46 46 47
68 91 99 95 93 89 89 86 83 76 81 67 68 63 49 63 52 52 54 59 50 54 53 56 55 43 59 58 53 47 44 43 43 44 45 42 46 49 50 40 53 46 39 39 44 48 47
61 69 85 98 96 95 90 71 56 49 47 44 49 68 53 53 49 50 56 59 62 62 60 61 71 71 61 54 46 44 41 45 44 47 44 42 40 44 46 33 37 44 44 44 44 44 48
66 58 66 79 97 91 86 67 50 47 55 56 57 62 62 49 50 56 60 61 50 49 58 70 76 69 65 45 41 45 35 43 37 42 46 45 40 39 44 42 27 35 43 43 38 42 51
74 70 64 66 74 98 95 90 59 61 56 57 61 63 72 62 76 74 63 63 66 52 50 64 63 62 58 46 48 46 38 46 43 42 45 47 46 48 38 45 31 38 45 45 48 48 54
78 72 71 66 72 80 99 90 85 69 69 61 58 56 68 75 87 79 74 76 71 62 49 66 59 59 52 54 48 44 41 42 47 42 43 42 42 43 46 50 48 41 50 46 49 53 54
78 74 73 69 70 77 98 93 89 79 78 79 68 62 68 77 89 76 74 72 71 71 76 74 70 61 62 51 46 44 42 43 42 33 47 46 37 38 39 37 43 44 45 58 53 53 57

GFSGBSN_850_rhum_108.txt.gz
RH
100 98 96 91 88 87 84 80 83 81 80 93 93 97 91 96 97 96 100 93 94 94 80 73 74 85 73 69 51 57 79 77 88 72 52 44 44 38 38 29 25 28 28 27 28 31 34
100 100 98 88 87 85 85 80 81 77 87 80 84 92 94 92 97 95 100 100 99 84 69 75 80 75 80 56 45 60 67 76 61 60 50 51 48 46 46 40 38 31 30 29 28 28 27
100 96 86 92 97 92 95 89 83 82 76 88 75 75 56 82 88 81 99 100 98 80 78 82 72 86 83 51 45 53 62 56 56 59 54 50 51 54 49 46 44 45 54 45 41 34 33
90 92 94 89 96 96 98 98 85 78 78 87 81 76 52 57 96 99 99 100 90 82 71 67 87 90 70 58 56 52 55 54 62 62 62 61 61 60 57 58 60 61 60 74 45 40 33
88 95 99 99 94 97 98 99 96 81 80 68 81 70 48 37 87 100 100 100 91 67 67 77 93 96 53 50 46 50 50 54 57 66 66 61 61 66 62 79 78 64 85 61 49 35 36
92 99 89 98 99 93 93 98 91 87 84 75 77 67 50 94 59 98 100 96 83 88 91 97 84 77 56 49 55 54 55 58 56 60 65 72 66 80 75 90 85 74 72 84 74 39 34
98 98 90 81 99 86 92 100 94 89 91 77 75 67 61 99 76 90 100 96 100 96 91 69 56 50 48 54 54 61 58 62 62 58 62 56 93 95 78 69 61 62 83 74 53 32 39
98 100 87 99 99 96 92 90 95 93 87 73 61 67 62 100 94 99 95 90 75 74 78 71 62 58 61 61 57 61 63 63 65 83 69 91 97 64 53 66 75 86 86 78 57 48 41
96 99 96 95 100 95 98 90 90 95 88 75 66 65 60 98 100 99 92 81 67 70 58 68 64 62 62 67 58 58 69 73 90 99 100 100 77 72 87 87 80 81 74 68 81 76 46
94 96 94 86 93 94 93 95 84 80 79 71 68 59 66 88 100 99 96 73 67 71 94 67 63 63 68 70 70 64 78 90 97 100 99 98 73 87 86 80 66 74 48 58 85 89 95
97 97 89 75 91 87 90 82 84 80 80 76 75 99 100 88 88 96 92 78 68 66 92 52 58 65 68 74 69 76 82 99 99 98 99 95 89 74 77 63 50 53 56 94 84 98 73
98 90 83 84 83 80 81 78 76 78 84 82 59 86 100 100 93 99 88 74 67 92 93 75 58 62 63 66 63 86 94 97 99 99 97 94 76 83 69 63 58 55 84 95 100 100 98
99 88 74 83 87 82 82 77 78 84 80 84 54 88 100 98 95 78 71 74 94 92 46 70 68 53 55 57 55 61 90 96 91 100 97 90 87 74 70 81 74 95 100 98 97 98 98
99 100 75 74 83 79 81 98 85 79 74 75 58 73 97 98 98 76 77 80 83 48 60 45 49 50 60 47 49 47 82 81 71 68 96 94 86 93 70 85 100 97 97 99 96 97 98
99 88 83 75 83 76 80 84 86 78 68 69 74 57 88 98 99 78 87 92 92 74 43 51 50 56 54 47 50 46 59 61 60 58 91 100 93 67 73 68 69 75 95 67 100 57 86
95 78 98 74 79 72 78 71 66 65 67 83 60 92 99 98 84 81 91 72 67 47 45 42 48 41 43 44 48 44 54 55 61 52 65 63 88 63 60 58 62 66 49 74 95 89 96
77 70 96 73 72 75 65 67 64 57 75 90 77 97 100 97 83 87 92 69 51 49 58 55 45 38 40 44 44 46 55 59 56 57 53 56 76 67 55 67 72 63 64 51 50 48 52
94 75 83 69 68 79 63 63 56 57 81 74 97 98 98 91 88 67 70 63 61 51 56 51 47 42 44 44 49 49 57 62 54 52 59 48 63 84 67 48 45 56 49 47 87 70 66
98 93 82 78 84 94 80 68 66 62 84 73 98 98 97 98 90 63 56 56 58 52 52 52 47 44 41 47 55 52 49 54 54 57 63 55 65 89 66 58 48 51 47 53 50 79 61
89 98 87 74 85 91 86 58 70 82 72 80 84 99 94 92 73 55 60 54 50 59 52 47 44 41 38 43 42 52 50 49 52 50 55 62 62 73 90 76 66 65 54 53 74 79 66
84 77 84 70 71 69 68 61 68 78 72 93 72 80 76 89 67 57 63 52 47 53 49 44 42 44 43 46 42 49 44 43 44 43 45 53 72 72 51 51 58 50 53 54 63 54 70
70 80 74 70 65 69 64 70 78 78 78 95 75 68 72 60 52 54 70 57 45 49 59 44 49 43 49 58 55 60 53 56 56 48 44 45 71 58 53 42 41 52 49 53 54 51 57
73 70 80 76 75 86 85 76 75 77 88 96 70 59 61 59 52 54 57 53 46 50 56 53 51 45 57 60 51 47 45 43 44 54 54 50 61 71 72 50 46 58 51 49 51 52 53
69 70 70 75 82 87 94 92 88 90 92 88 75 65 52 68 55 51 51 54 50 55 57 54 62 50 58 55 52 47 42 41 41 45 42 50 49 59 76 49 66 53 41 39 49 50 56
63 69 77 79 69 84 87 57 52 54 54 64 66 66 56 58 51 48 50 56 59 60 59 61 70 64 58 56 59 50 56 49 43 46 49 47 51 56 72 49 39 45 48 47 47 56 48
70 76 82 81 92 68 78 75 58 59 58 62 60 61 65 50 56 47 54 58 59 56 65 69 66 60 61 58 52 50 52 43 43 49 46 49 48 56 54 58 43 45 46 41 38 60 53
55 73 76 73 72 92 74 76 78 62 59 56 61 68 70 62 65 64 61 66 60 51 66 64 63 62 54 62 63 65 50 44 54 47 49 56 56 64 63 66 46 49 47 42 59 60 54
53 74 77 74 72 86 87 75 77 80 69 60 56 66 73 78 75 73 72 74 66 63 64 64 64 62 62 67 61 54 52 53 54 40 43 49 54 64 55 57 63 46 51 55 55 53 54
66 70 69 69 75 78 86 92 74 80 80 70 71 58 67 81 83 76 72 69 67 67 69 68 71 62 73 71 60 56 57 53 46 49 48 61 49 57 48 58 45 45 48 50 51 53 54

GFSGBSN_850_rhum_111.txt.gz
RH
94 96 86 95 90 93 92 95 94 96 88 86 76 97 92 93 95 89 100 100 99 93 94 82 64 72 61 64 61 59 82 89 64 53 50 45 45 44 46 42 41 36 31 32 31 31 31
75 94 89 93 90 95 93 97 96 97 93 93 74 89 93 88 89 91 97 96 100 96 88 74 72 67 66 52 57 54 64 67 66 52 51 50 51 50 46 47 48 47 52 48 45 42 37
93 94 96 94 98 95 92 96 95 97 93 90 78 89 90 56 80 90 84 100 100 94 80 70 70 69 72 46 50 57 69 61 57 56 54 60 53 53 57 60 58 55 65 57 50 48 51
90 92 96 94 97 83 92 84 98 97 98 83 75 80 75 44 69 100 97 100 93 90 81 65 77 81 67 65 62 53 54 55 58 60 55 61 58 56 59 61 61 66 63 82 51 49 46
96 99 99 84 85 98 85 92 95 96 87 82 80 76 70 48 49 99 100 100 99 88 64 80 79 83 65 52 52 49 54 55 61 62 64 61 61 66 66 82 87 76 93 83 67 46 51
97 99 99 91 91 100 82 82 93 89 89 89 82 76 59 59 60 93 100 98 69 69 92 89 87 76 58 54 49 49 50 54 59 64 68 66 70 90 84 96 94 87 94 77 81 56 52
97 100 99 89 90 94 97 84 76 77 82 90 80 64 81 83 58 88 95 96 100 94 96 72 58 52 51 54 55 56 57 58 59 58 70 70 96 97 88 84 72 74 82 81 67 60 63
97 97 96 100 85 87 87 90 82 76 82 87 59 60 88 99 95 98 91 88 87 82 78 68 61 57 58 60 62 62 61 62 66 85 76 91 95 74 66 61 69 98 94 84 66 57 61
93 85 97 93 85 86 81 83 86 87 85 70 62 63 67 99 95 98 90 89 80 75 69 62 63 64 63 62 60 65 62 72 84 93 96 97 81 78 86 92 95 87 87 84 85 67 63
96 68 78 80 75 81 85 82 87 86 75 70 70 54 55 98 97 96 91 71 72 71 89 70 67 64 66 67 70 66 72 81 87 89 97 93 72 81 84 89 82 91 62 78 94 83 98
100 68 57 61 61 73 87 87 84 84 69 74 91 80 88 90 91 96 96 78 66 66 84 57 65 64 69 72 72 80 81 95 98 97 99 83 88 93 77 69 64 73 54 76 93 98 85
98 80 52 59 55 62 72 75 67 67 59 74 98 98 97 88 95 90 93 68 63 84 75 68 65 71 74 70 68 88 93 94 99 98 97 96 76 85 73 62 63 66 80 87 100 98 98
79 70 57 68 74 68 72 74 67 62 55 76 71 90 80 94 89 90 71 71 86 79 49 70 70 63 63 75 72 81 95 98 98 93 94 94 88 80 72 86 79 92 100 97 97 97 98
76 54 52 63 72 79 91 86 70 59 50 54 84 81 80 90 73 70 75 84 78 57 66 49 55 54 68 52 55 64 88 86 79 76 92 91 77 85 74 83 100 100 100 99 96 97 98
90 61 63 70 67 73 95 91 68 48 39 46 59 81 82 98 74 69 84 94 89 69 53 55 52 60 61 49 53 54 68 73 63 61 87 90 85 68 74 72 83 91 100 85 100 94 91
98 73 74 74 82 80 84 79 70 61 45 46 46 76 99 88 77 79 90 80 67 54 60 51 60 52 52 50 58 51 63 63 68 57 65 74 96 66 60 67 67 84 61 84 96 96 96
90 88 87 88 81 86 82 75 72 93 92 77 62 86 88 76 80 84 92 75 59 51 60 64 62 53 49 51 52 58 69 64 61 63 62 63 79 71 58 66 73 77 71 57 58 66 90
87 60 66 88 91 68 73 68 78 93 83 70 90 97 81 86 90 84 83 67 60 51 55 59 51 49 53 54 60 55 66 67 57 59 68 55 71 89 67 53 47 55 62 56 86 71 78
81 61 65 64 66 58 52 61 89 90 76 76 90 92 85 93 92 87 60 63 60 67 61 56 55 48 44 49 61 54 56 54 54 59 61 59 77 90 74 60 58 69 53 58 61 75 83
68 57 59 56 48 46 46 53 80 88 94 82 77 92 82 80 80 67 68 55 61 59 59 50 48 46 46 44 48 55 53 53 51 50 53 62 68 76 90 74 72 69 60 59 70 90 83
64 69 52 53 49 43 45 68 68 71 88 94 76 84 78 93 72 67 68 62 52 62 55 50 47 55 55 60 54 59 54 55 49 45 46 58 73 72 57 55 54 55 60 64 71 64 76
64 67 71 60 60 56 53 63 77 75 82 92 79 74 70 68 55 62 72 60 51 55 60 60 56 59 64 68 63 68 61 61 60 57 50 55 73 63 59 44 47 53 56 57 62 63 69
67 73 72 78 69 67 68 71 70 77 77 88 76 69 66 66 65 66 69 58 53 56 57 54 60 59 64 62 57 52 52 48 47 54 63 57 69 79 77 55 48 61 51 53 52 60 64
52 67 76 81 85 73 70 75 76 75 78 83 78 82 69 76 75 64 58 57 55 62 62 58 59 58 56 55 53 49 47 46 45 48 50 60 58 72 83 53 59 55 42 43 55 58 61
36 54 68 82 76 89 82 67 53 54 55 59 75 71 73 84 63 57 54 62 62 58 62 66 64 59 56 57 63 59 64 51 50 50 50 56 61 61 70 69 42 54 50 54 57 57 60
20 46 57 69 83 86 81 72 69 54 54 60 60 59 64 80 69 64 55 59 74 73 73 69 60 56 58 71 65 54 58 46 48 48 48 53 58 65 62 57 47 40 49 40 41 60 55
15 48 53 56 70 81 86 82 88 82 60 57 58 61 65 73 67 64 71 76 65 66 78 70 61 58 59 76 72 75 60 45 59 55 50 62 65 68 70 75 56 48 49 42 55 42 54
12 44 66 62 62 70 80 88 92 96 81 66 59 57 63 72 71 68 72 72 72 70 79 65 64 65 74 72 74 70 63 59 53 50 49 57 70 70 68 64 63 50 52 49 43 56 53
14 50 70 68 66 70 80 92 94 98 87 75 63 62 51 67 76 70 64 70 75 77 80 73 74 71 72 79 76 70 64 66 60 59 51 58 54 54 58 60 44 47 43 40 43 50 53

GFSGBSN_850_rhum_114.txt.gz
RH
99 91 95 95 90 96 83 88 94 95 98 96 94 80 94 77 83 85 89 99 94 97 89 92 72 64 62 60 68 62 91 78 57 47 46 45 45 46 48 47 43 40 45 48 45 44 40
92 94 86 86 75 92 90 85 81 91 99 95 92 82 85 79 65 84 84 99 100 98 99 85 57 66 66 56 66 85 52 61 55 50 52 48 52 51 50 52 51 53 56 52 49 51 50
98 98 99 95 90 82 96 81 83 87 93 96 84 84 85 69 78 90 86 93 100 99 88 66 65 65 51 54 61 66 63 68 59 52 58 56 52 51 57 59 59 57 62 57 47 45 49
98 96 98 96 84 80 86 78 92 92 93 96 86 83 77 64 69 91 89 100 97 88 82 74 64 65 67 54 58 66 64 59 58 50 56 61 58 55 53 61 61 67 65 82 51 47 47
97 94 94 99 86 97 87 79 93 97 98 93 83 80 62 50 56 98 100 99 91 86 70 69 68 64 65 61 60 55 54 55 59 60 60 60 62 64 67 81 85 74 85 85 71 53 56
81 89 96 90 82 85 82 82 87 94 93 89 77 67 49 61 59 100 99 98 80 64 81 79 74 59 58 54 50 49 53 55 60 64 67 68 72 90 90 92 88 83 92 83 80 58 55
99 61 99 83 92 89 86 83 91 92 88 78 67 62 77 48 46 100 82 81 81 84 82 78 66 58 57 54 54 50 52 58 59 65 78 80 94 97 92 88 70 71 84 89 73 59 66
99 69 93 76 87 82 84 86 84 82 88 66 58 97 93 93 85 96 86 84 87 70 74 66 60 57 54 59 61 57 59 62 66 84 79 83 91 76 74 74 81 85 91 82 71 61 64
98 61 77 92 75 80 80 86 91 90 68 58 53 99 98 100 100 89 79 76 77 63 60 59 64 66 63 60 63 64 64 67 81 84 91 78 73 72 78 80 85 80 86 86 90 68 71
95 53 75 86 72 75 79 87 80 66 56 59 45 82 99 96 92 91 80 70 76 72 87 72 66 65 65 66 75 65 68 76 86 82 81 88 72 80 84 83 71 87 66 74 80 96 95
72 54 71 74 74 75 75 66 58 66 72 47 45 87 86 74 87 92 92 72 71 64 71 56 68 66 69 72 73 81 81 86 91 89 92 81 91 90 95 74 68 76 62 70 80 99 97
54 66 68 76 69 70 65 60 59 80 92 88 86 79 81 84 88 90 88 63 60 73 72 68 67 71 77 72 74 89 90 90 96 90 88 92 83 85 79 63 58 63 91 87 96 99 100
60 73 68 70 85 70 63 59 53 72 81 90 94 90 89 88 97 84 66 64 78 82 49 63 73 74 75 79 74 82 94 98 97 92 92 86 88 79 76 86 82 96 100 97 97 96 96
84 75 84 68 93 82 70 66 55 63 78 86 90 79 74 75 76 68 72 72 83 56 63 53 65 64 70 66 70 80 90 91 90 84 87 88 84 87 75 92 100 100 100 98 96 97 96
67 84 88 86 87 86 74 70 68 62 76 92 83 72 74 72 65 70 76 91 82 71 61 57 54 61 64 52 56 67 84 76 66 64 86 88 86 63 70 71 89 91 100 94 100 99 88
51 63 78 84 79 73 69 77 92 86 80 70 70 65 60 59 67 76 82 81 66 56 61 54 64 56 56 53 57 60 70 66 71 60 66 70 92 66 60 69 74 84 75 95 98 94 96
42 49 55 60 61 65 62 55 90 88 79 70 65 67 71 71 72 67 91 78 58 52 60 58 62 57 54 58 58 64 73 64 62 65 66 66 79 74 60 61 70 72 77 65 63 89 97
45 40 41 44 51 48 49 75 77 73 70 61 70 92 70 63 66 83 81 66 61 54 57 58 54 53 54 55 63 59 65 64 58 61 68 58 74 91 65 56 52 57 64 64 80 71 81
50 46 35 32 35 31 58 78 87 87 75 71 77 77 62 67 88 87 64 60 61 64 62 57 55 50 46 51 60 56 56 51 56 58 57 58 79 89 54 48 56 72 60 62 67 76 89
53 53 48 32 30 32 63 71 75 76 85 72 72 89 59 64 81 72 67 56 57 56 62 52 54 48 48 55 53 55 55 50 52 51 55 61 72 74 75 66 70 72 65 66 70 91 87
59 54 58 54 31 38 54 67 66 68 78 82 73 80 80 91 70 70 68 61 58 63 56 51 50 63 61 58 58 66 60 60 50 50 52 57 68 70 63 62 58 55 65 73 73 68 74
59 66 60 68 63 46 50 61 60 64 64 69 79 78 72 71 66 66 75 60 55 57 62 59 61 62 67 66 64 65 64 59 62 57 60 60 69 66 62 50 49 52 53 58 64 68 74
49 66 71 69 69 71 62 63 58 61 69 65 67 76 76 72 71 70 70 63 59 60 57 58 62 66 60 60 60 56 57 57 56 54 63 60 71 81 78 59 54 60 51 54 54 61 69
24 55 74 75 76 79 82 74 59 52 49 52 58 71 72 82 78 68 60 62 66 64 68 59 61 62 58 56 54 54 55 54 52 50 54 61 66 76 83 52 59 44 45 45 52 59 63
10 36 57 80 81 79 82 61 57 54 52 54 63 74 72 83 73 64 56 64 64 62 65 67 63 61 60 61 64 58 54 48 50 55 53 58 66 67 62 68 42 49 50 56 50 44 64
19 10 43 62 82 86 81 71 72 73 61 54 59 59 60 74 71 61 67 59 75 75 77 67 60 54 56 74 68 56 60 47 48 48 53 61 63 62 71 51 47 27 45 43 37 49 59
22 14 16 48 61 74 83 81 78 88 86 69 51 54 66 72 66 67 68 70 72 74 82 75 62 59 62 79 76 81 66 48 55 58 51 64 69 70 70 80 62 40 49 40 39 24 56
25 21 13 32 55 67 71 82 84 89 92 85 70 53 58 66 66 64 66 68 74 74 83 70 67 62 78 71 79 75 72 61 62 53 52 53 72 76 74 70 58 51 52 52 38 54 49
36 21 18 41 49 65 68 72 82 90 96 89 83 75 61 62 68 69 68 67 69 64 62 73 73 75 77 83 82 80 67 72 64 62 49 64 56 54 59 58 40 47 40 36 43 44 49

GFSGBSN_850_rhum_117.txt.gz
RH
96 97 97 96 96 97 86 84 84 78 88 86 98 92 88 84 52 76 86 100 86 97 97 90 82 59 49 59 64 77 94 69 60 51 42 42 42 45 48 50 46 45 49 52 49 46 44
91 99 96 94 89 80 82 84 81 76 91 89 97 91 87 87 74 57 78 99 99 99 100 93 70 59 52 74 84 86 63 51 45 39 45 44 52 49 53 55 53 60 61 57 48 45 46
94 89 98 97 85 80 84 88 84 82 91 94 93 83 88 82 67 92 61 99 99 98 98 72 66 60 54 88 84 66 67 60 53 53 51 55 53 52 55 58 60 60 65 60 49 44 49
98 99 94 99 83 91 77 87 95 89 94 94 88 77 83 68 88 75 84 98 100 99 72 71 63 48 58 63 68 65 60 59 56 51 55 60 56 52 55 61 60 70 65 78 50 51 46
100 84 88 96 87 78 84 92 97 98 94 86 84 76 69 51 98 99 99 100 92 83 80 69 64 54 61 63 65 63 62 55 60 59 62 64 64 66 66 79 79 72 82 80 72 54 60
68 60 79 97 88 79 77 83 98 94 92 86 74 64 64 72 81 100 98 92 79 76 75 69 56 44 58 53 60 55 54 57 61 63 65 67 72 89 91 91 85 82 89 82 88 60 59
42 58 96 84 80 78 70 75 79 83 77 59 51 82 100 91 99 83 87 79 75 65 66 67 61 58 54 48 51 52 53 54 61 66 80 84 94 97 79 84 74 76 84 87 71 60 69
42 50 99 97 73 75 69 71 79 79 56 92 90 86 74 95 95 86 90 79 69 62 67 61 55 55 55 57 57 56 58 60 66 83 77 78 91 77 75 79 84 92 86 78 68 63 68
48 51 77 83 74 88 80 74 65 56 56 99 96 76 82 72 90 84 77 69 62 57 60 64 66 64 63 62 66 61 61 66 79 83 83 90 73 70 80 80 83 80 81 77 83 74 75
58 59 59 85 70 75 66 61 64 54 44 91 96 93 99 96 90 82 68 63 62 62 89 76 65 66 65 66 77 67 65 73 84 75 85 86 73 84 89 88 80 78 61 69 81 94 96
51 72 60 63 63 69 62 85 87 52 58 78 94 92 89 86 76 81 70 66 69 63 92 57 68 68 68 73 72 75 77 83 89 86 88 78 90 84 93 84 73 80 59 73 96 99 100
42 69 89 85 61 59 63 92 87 82 76 84 79 83 84 91 89 89 70 68 61 73 80 70 67 69 74 73 78 88 91 88 94 93 88 95 79 87 84 70 61 57 75 86 93 99 99
34 46 90 74 62 58 59 85 93 96 99 97 86 85 82 83 86 84 69 59 78 85 49 65 74 77 75 76 76 83 90 97 98 98 86 82 85 83 82 92 80 88 100 97 95 96 93
40 33 50 74 62 55 51 63 87 91 98 95 100 86 80 68 65 66 66 70 86 60 62 52 65 71 75 72 75 84 90 94 92 92 95 88 78 89 83 91 98 100 100 99 98 96 92
42 38 35 46 54 53 43 53 61 88 88 84 84 74 65 65 64 68 58 90 80 70 60 59 57 66 65 59 62 77 93 80 73 88 87 94 87 58 71 76 85 92 100 96 100 96 92
38 37 39 33 42 48 44 53 62 54 52 67 67 64 67 68 70 65 80 79 70 59 60 58 63 58 57 55 61 66 73 65 70 66 66 74 93 65 62 69 81 83 78 98 97 97 93
30 32 34 36 32 28 50 70 67 61 54 50 55 57 60 63 62 59 89 78 61 53 61 59 63 59 57 60 60 65 65 62 64 65 70 71 82 74 59 60 67 75 77 80 72 89 93
37 27 24 23 23 23 45 69 73 68 53 49 51 76 55 51 61 82 80 67 63 59 59 59 56 56 56 56 61 61 65 63 58 63 69 62 77 95 68 53 57 59 64 68 87 69 89
41 41 28 23 24 40 58 63 71 70 61 49 58 55 51 51 87 88 67 59 61 63 61 57 56 53 51 53 60 59 55 49 58 59 59 61 81 88 52 46 55 68 61 66 71 76 87
55 49 41 32 31 50 62 68 64 68 66 57 56 86 52 57 75 73 81 60 54 56 60 56 55 52 53 54 54 58 61 50 53 54 56 61 74 69 76 61 66 74 65 70 71 89 86
60 60 58 46 37 44 60 65 61 62 61 71 66 80 79 90 72 72 75 67 63 63 57 56 54 65 67 59 62 65 62 62 51 52 59 60 66 70 66 70 65 59 60 72 76 71 70
47 64 67 65 54 46 53 61 64 62 65 62 70 76 79 74 71 66 72 64 60 59 63 60 62 68 64 63 64 64 66 61 62 58 61 63 65 70 70 56 58 57 54 56 60 69 74
18 46 67 70 62 60 63 67 64 66 60 60 67 73 74 75 73 72 70 68 62 64 59 60 65 71 65 59 62 58 58 60 62 62 65 64 71 80 75 66 58 51 54 53 57 63 70
13 17 52 69 73 69 72 66 58 50 50 51 54 67 73 80 81 72 61 62 66 67 69 61 63 65 58 58 57 60 64 64 66 62 58 64 67 77 84 53 38 30 49 46 54 56 68
24 13 21 50 70 76 76 67 60 59 50 58 59 64 68 82 77 69 66 60 65 65 67 67 63 57 57 61 67 59 56 48 50 60 61 62 68 65 61 66 40 37 52 58 57 45 60
46 21 12 29 51 69 76 76 69 72 63 52 58 63 61 71 75 59 66 60 74 76 74 64 66 62 61 73 67 58 58 48 46 45 62 68 66 63 72 54 31 20 43 45 36 45 42
71 30 19 12 34 56 69 79 78 77 81 76 62 58 68 71 62 62 68 69 69 76 82 75 64 62 65 79 76 82 70 52 60 58 55 69 73 77 70 76 54 41 48 40 23 16 48
76 55 25 16 13 39 58 62 78 83 82 84 82 69 62 68 60 62 64 62 72 76 82 66 68 65 80 74 81 77 77 65 68 58 53 54 66 76 76 70 53 50 48 45 30 43 48
78 74 32 20 18 34 51 58 66 85 87 92 90 83 82 71 54 56 62 62 66 68 67 73 71 72 67 87 88 85 73 77 68 66 53 62 56 53 61 57 38 44 42 34 37 38 41

GFSGBSN_850_rhum_120.txt.gz
RH
78 97 84 86 72 74 74 80 83 72 82 87 94 91 98 89 77 56 64 88 95 100 97 92 78 56 40 49 69 95 95 55 54 50 38 42 42 44 50 52 47 48 57 56 51 45 44
94 96 89 86 77 81 78 80 83 73 84 94 98 98 97 88 74 69 53 96 95 100 92 87 67 48 42 90 96 96 57 46 40 34 39 37 52 49 55 59 55 64 64 59 45 42 43
68 97 98 90 80 78 77 81 85 77 92 97 99 82 76 73 63 73 64 100 94 98 93 79 59 51 65 97 84 66 61 54 50 50 45 53 52 48 51 54 60 61 61 57 46 48 50
55 97 97 98 84 78 83 90 93 90 89 95 85 75 72 59 90 72 81 100 100 93 82 64 56 44 84 87 70 59 59 56 55 51 52 57 52 48 54 61 56 70 63 61 43 53 47
93 100 94 90 94 85 97 94 91 94 92 88 77 71 59 83 98 73 98 99 97 79 69 61 48 38 63 70 73 65 58 57 60 59 62 63 61 68 65 73 73 71 76 76 70 54 59
92 94 79 89 81 83 83 82 86 83 73 70 69 60 57 87 99 100 98 92 74 64 66 59 48 44 62 63 64 56 56 57 61 62 61 65 72 88 92 87 82 80 84 81 85 62 60
48 50 73 93 73 72 67 83 64 62 87 57 56 74 98 90 99 91 90 73 54 54 54 63 59 57 53 55 51 54 54 55 62 63 78 82 94 97 79 84 73 84 88 95 72 61 72
40 47 54 90 96 91 93 65 54 87 81 77 83 83 91 93 95 94 77 62 59 58 69 57 55 53 52 55 55 55 59 60 67 85 78 81 94 75 74 78 85 95 86 84 72 63 74
31 41 48 52 54 52 57 72 59 97 84 67 81 76 90 93 87 82 62 60 60 57 65 66 66 65 62 65 68 60 61 67 78 74 80 90 71 70 83 84 89 93 91 84 84 68 75
32 31 42 42 46 77 80 72 62 100 100 94 90 88 93 89 75 74 62 62 59 57 89 75 69 64 64 68 74 65 67 73 83 79 90 92 73 81 90 87 79 90 66 76 80 92 88
34 27 31 38 48 76 82 64 72 92 98 98 87 88 90 90 83 62 58 62 61 60 94 58 69 68 65 73 71 74 71 80 86 77 87 75 86 83 90 80 74 78 60 68 84 99 99
43 32 26 31 55 72 72 69 81 83 86 89 93 88 86 82 77 58 57 62 52 75 92 72 67 69 73 74 79 85 85 84 88 88 80 84 82 85 76 74 64 58 72 86 92 98 98
44 43 31 25 32 54 71 82 80 75 70 78 86 84 81 79 73 60 55 51 78 86 51 68 73 76 75 77 77 89 92 88 92 93 86 76 94 82 85 94 80 85 99 97 91 94 93
49 45 44 30 24 42 53 65 73 75 77 77 75 79 69 67 67 63 50 70 87 63 63 54 65 73 77 70 72 85 93 93 92 86 98 99 78 85 84 86 90 100 100 98 98 97 94
37 41 44 42 26 31 48 47 49 51 65 66 65 60 61 63 62 58 50 90 80 70 60 62 63 69 65 62 70 82 93 83 73 89 89 97 90 60 85 83 86 91 100 96 100 93 95
37 31 36 38 28 29 44 58 59 53 55 58 59 60 58 57 54 54 78 78 71 59 60 59 61 59 59 59 64 78 71 66 69 75 68 78 96 66 63 74 77 86 78 92 96 95 95
25 24 23 30 25 54 58 59 62 56 49 52 51 51 51 51 50 50 89 76 64 56 61 61 64 61 59 61 62 67 64 61 64 68 72 75 86 76 61 61 68 72 75 81 84 91 98
30 23 17 20 32 63 63 66 60 58 49 46 50 62 52 44 57 82 81 71 65 62 62 62 58 58 58 58 61 63 67 61 58 64 71 67 80 96 67 59 59 60 64 74 90 70 90
51 36 28 28 33 57 68 64 64 58 55 49 46 48 50 46 82 85 66 58 61 63 61 59 56 55 53 56 64 62 56 49 58 62 61 62 82 88 55 47 51 67 66 67 77 81 88
61 55 44 33 35 49 67 64 62 62 61 52 51 80 47 55 74 74 71 66 54 55 60 59 58 54 56 53 56 60 58 51 53 58 59 62 77 69 76 58 66 78 69 68 76 89 79
47 61 62 56 36 45 64 64 59 58 61 61 59 80 83 88 72 73 74 67 61 57 57 58 56 66 69 69 62 62 61 65 53 55 65 64 73 75 73 71 70 73 64 62 80 72 72
15 43 64 68 60 46 48 55 56 57 64 57 63 70 75 76 73 66 72 67 61 60 61 58 62 68 66 68 63 64 67 63 64 63 63 67 75 72 74 60 57 63 58 59 65 71 75
24 15 45 72 70 60 55 65 66 60 48 57 67 71 70 75 74 69 70 68 64 66 59 59 64 71 68 59 60 59 60 60 63 68 69 70 76 82 64 64 56 42 48 57 59 62 65
45 22 14 50 74 73 71 68 59 53 48 49 55 67 70 76 81 74 63 61 68 67 69 63 64 67 57 60 61 65 73 73 75 75 67 67 68 78 86 57 24 22 49 47 55 58 71
74 41 22 15 50 76 79 76 63 62 53 52 56 65 69 81 76 72 68 66 63 66 72 67 58 58 58 60 68 61 54 47 51 63 74 67 70 70 71 71 37 21 45 56 54 41 56
83 69 35 21 14 39 71 80 71 68 72 56 52 59 63 70 71 60 65 63 76 78 76 66 64 64 62 72 66 55 54 48 47 47 70 71 70 66 71 53 27 14 38 47 36 34 25
74 80 66 32 20 17 45 70 83 76 78 81 70 60 63 70 61 60 68 68 67 77 83 73 67 67 69 79 74 83 69 56 63 56 63 76 79 81 76 78 54 36 46 41 22 14 38
73 89 80 64 33 19 19 44 65 84 82 83 84 78 68 65 56 56 57 60 66 78 82 67 71 72 82 73 79 80 80 71 70 62 61 62 79 84 80 74 58 45 51 42 27 30 45
71 78 89 85 56 25 17 32 50 70 89 89 93 88 85 84 70 68 68 60 61 61 70 73 76 72 66 82 87 85 79 84 71 64 58 63 52 52 59 53 33 43 33 28 30 35 35

GFSGBSN_850_rhum_126.txt.gz
RH
99 98 99 96 99 96 82 66 67 76 79 93 92 85 92 85 82 84 63 100 92 85 81 71 50 44 46 75 85 75 54 44 32 31 31 37 39 38 33 35 37 33 36 42 43 44 42
99 99 98 100 76 98 94 81 79 78 75 93 86 90 94 91 69 58 61 94 100 98 81 84 48 46 61 86 65 55 47 34 28 24 26 36 44 41 39 39 31 42 41 36 37 36 36
99 98 97 95 86 87 96 82 92 96 99 94 87 88 93 75 50 50 83 90 94 84 83 65 48 64 69 92 65 56 41 36 36 34 29 34 36 40 39 41 51 45 32 24 29 35 37
100 100 98 100 59 64 88 89 92 82 79 72 71 70 61 60 64 60 98 91 100 77 74 56 61 52 77 84 65 53 53 52 53 46 42 44 35 44 49 53 41 36 35 24 28 40 43
99 93 71 54 72 73 69 66 66 66 59 50 56 80 86 76 61 87 98 88 77 68 62 57 48 53 73 61 60 54 56 58 58 56 51 49 44 61 55 44 42 39 31 37 34 43 42
73 76 89 74 75 65 61 68 55 79 87 94 95 95 72 60 79 99 98 89 70 51 44 41 42 46 70 64 56 56 54 55 56 56 60 62 66 54 54 52 38 51 51 47 44 39 45
89 90 62 57 69 72 66 62 75 72 75 82 90 95 82 94 94 88 72 54 63 52 49 58 59 59 62 52 51 54 56 60 62 58 56 66 80 67 61 55 55 65 59 55 44 39 55
97 82 38 65 74 65 70 89 88 91 95 90 92 89 91 94 85 66 59 49 53 56 62 62 60 60 58 53 54 60 59 61 58 63 60 57 70 57 59 64 65 73 80 60 48 49 52
61 86 49 66 69 69 65 63 70 86 88 95 89 94 88 82 77 65 45 47 58 60 57 66 64 68 68 64 65 66 68 73 63 67 70 77 58 60 64 68 69 62 65 62 78 58 50
60 49 78 64 64 72 67 65 61 78 84 82 95 87 78 64 59 58 54 58 58 54 83 60 63 64 66 66 68 66 68 74 67 75 74 73 63 66 72 71 62 66 53 61 73 80 71
41 62 65 69 72 70 76 76 67 52 56 69 68 66 67 61 52 51 50 48 45 49 78 51 61 64 64 68 71 73 73 79 78 74 76 72 66 73 78 63 62 60 58 73 84 92 95
42 45 59 65 79 75 68 72 70 68 59 45 56 58 55 45 47 48 51 48 41 87 84 78 63 63 62 69 72 82 82 84 85 74 65 73 72 73 65 64 61 57 76 78 85 97 90
43 36 48 53 54 63 66 58 67 63 61 58 57 54 50 45 46 45 45 47 95 79 51 68 66 64 64 63 68 76 75 68 79 95 98 66 69 69 76 75 69 82 97 83 84 88 73
37 36 47 50 71 68 70 58 55 55 55 54 50 51 45 41 38 35 41 55 85 59 59 52 60 62 63 58 62 70 70 68 75 71 80 86 80 72 71 68 87 84 98 92 86 72 67
26 29 39 60 66 70 62 58 53 51 53 51 47 41 40 42 43 40 47 92 81 63 55 60 60 58 54 54 60 60 67 68 60 71 74 72 74 54 65 59 69 70 75 70 100 67 78
22 23 30 67 71 67 63 56 51 49 50 50 44 41 41 39 39 43 68 72 66 56 57 53 54 52 52 51 56 56 55 52 60 66 62 65 89 56 58 68 66 72 67 76 88 84 76
45 27 23 45 71 70 61 57 52 48 47 46 44 40 40 39 39 51 89 66 60 60 62 57 54 53 51 53 54 53 51 47 56 62 64 65 76 60 58 66 55 67 59 63 64 69 67
51 51 32 30 52 70 65 59 54 49 48 48 44 66 41 40 63 64 58 60 65 61 66 61 59 55 53 52 54 52 50 46 57 60 60 59 65 78 49 49 48 51 53 51 72 62 58
24 44 55 42 37 48 67 66 62 53 47 44 43 42 43 40 68 56 58 55 61 57 58 55 54 53 51 53 52 52 52 50 60 59 55 56 65 72 38 42 50 55 53 50 59 67 70
49 24 30 57 57 41 47 60 58 55 57 44 46 76 45 45 57 46 49 53 53 56 59 60 54 54 50 50 49 53 50 49 61 59 62 59 63 59 52 35 42 47 53 52 60 81 53
62 51 24 32 57 59 50 50 64 61 56 53 50 69 70 62 52 57 53 49 51 50 58 61 56 55 53 49 50 53 53 48 53 60 67 59 70 63 62 53 52 55 51 48 74 54 60
42 65 49 23 38 56 61 57 64 57 50 50 64 64 66 69 71 58 59 54 46 48 50 52 54 53 57 53 39 41 48 51 46 55 53 57 65 61 67 45 56 64 50 50 50 48 49
25 54 71 47 24 47 59 64 66 61 57 46 52 64 60 74 63 56 44 48 51 57 55 53 49 52 57 49 49 52 53 50 50 52 53 58 60 58 53 45 43 35 25 34 37 38 39
48 32 61 75 46 26 44 68 74 67 62 54 50 54 63 46 58 51 58 65 62 64 60 62 67 59 50 56 58 67 74 70 65 63 58 57 60 59 58 41 32 19 39 33 34 32 40
86 31 45 70 78 45 23 38 73 77 68 65 54 56 59 49 55 57 62 62 61 62 70 72 66 62 60 60 52 46 40 42 53 63 68 63 56 56 52 42 24 21 31 41 42 21 28
99 90 36 56 79 80 46 22 36 73 77 74 73 56 58 59 49 57 60 64 54 54 55 67 64 68 69 59 53 48 31 34 36 48 66 70 62 58 57 52 23 11 32 43 36 16 24
97 98 97 54 71 83 83 43 22 39 74 79 82 77 72 68 56 57 58 55 63 67 57 70 72 76 70 57 55 53 39 47 40 43 69 70 68 75 61 56 35 24 40 44 21 12 19
94 99 98 100 97 89 89 85 38 24 47 81 76 83 86 72 73 68 60 57 67 74 55 66 71 77 71 66 58 46 55 48 54 42 50 51 59 64 60 63 58 35 48 30 18 22 35
84 95 100 100 100 98 93 96 81 33 23 51 82 79 90 97 87 83 77 77 75 58 57 61 73 69 67 62 59 56 57 61 50 37 49 46 35 32 43 35 33 38 38 33 29 35 38

GFSGBSN_850_rhum_129.txt.gz
RH
86 95 90 86 89 95 97 84 73 85 81 87 90 89 85 87 74 69 71 89 86 82 82 55 46 43 63 59 64 55 46 34 33 32 38 36 28 27 23 23 26 22 22 28 31 34 34
87 87 94 96 88 94 85 94 89 79 88 82 86 92 84 76 60 65 85 80 75 86 80 49 44 50 66 62 68 55 49 38 43 40 39 35 33 29 26 25 22 28 26 24 24 26 26
92 93 92 90 82 75 80 74 86 81 81 84 89 91 86 67 56 65 99 99 92 94 64 43 66 64 60 73 61 55 41 33 41 49 43 42 42 32 26 26 34 28 24 15 19 23 27
96 97 99 100 95 79 64 58 51 62 72 74 76 76 66 64 44 74 100 96 97 87 68 52 58 57 74 65 58 54 54 56 49 36 32 27 45 42 37 36 29 28 27 23 25 31 35
98 89 93 98 88 76 62 86 75 62 61 64 72 69 75 63 79 82 99 98 91 69 54 52 59 52 61 60 53 56 57 57 60 61 52 51 54 46 45 40 38 34 24 24 26 34 36
98 89 87 96 78 77 84 73 88 90 90 89 74 64 69 78 96 100 100 78 62 54 42 42 45 44 62 53 55 56 57 61 57 58 60 55 52 47 42 47 42 46 40 30 30 28 32
98 85 92 95 91 82 82 96 91 91 99 85 73 90 83 98 99 90 64 51 47 47 50 49 48 52 52 52 55 58 61 58 57 45 44 51 82 57 49 42 42 48 42 41 36 34 46
96 98 85 87 85 78 95 91 88 90 95 99 87 87 92 93 83 77 54 61 55 54 59 59 58 58 57 55 52 61 60 52 46 56 48 52 62 46 49 52 52 57 64 49 43 41 46
82 86 98 83 82 82 83 93 89 87 83 91 95 93 86 81 60 53 45 46 54 58 49 60 63 63 66 62 58 65 64 62 53 65 58 62 50 50 54 57 56 50 51 50 69 56 44
54 84 76 82 77 76 78 73 76 82 82 73 76 73 84 74 62 67 58 58 55 55 72 54 54 63 63 67 61 72 75 70 58 66 62 60 53 56 60 62 52 56 47 57 67 77 69
50 52 82 69 68 66 68 73 71 66 62 60 64 53 55 56 52 58 45 44 42 47 86 46 53 58 65 59 63 69 75 68 70 66 64 67 55 61 69 54 52 55 54 68 79 91 82
36 47 50 68 72 69 59 62 69 67 66 56 58 47 43 42 37 38 39 44 39 83 84 81 54 53 51 55 60 67 70 77 75 66 57 62 60 62 55 56 54 51 65 75 72 89 91
26 43 52 65 77 66 55 56 58 62 59 52 50 41 41 43 40 35 37 52 91 79 47 65 58 51 47 48 49 56 58 51 62 92 98 61 59 56 62 63 59 70 97 93 92 94 72
22 34 52 58 63 67 53 50 52 54 54 52 44 41 38 36 34 31 43 54 91 54 56 48 52 46 50 46 49 51 56 53 56 60 74 77 88 59 58 60 73 68 86 91 86 68 61
21 24 45 55 59 57 59 51 45 47 47 46 44 43 42 36 37 38 50 93 81 58 48 50 46 45 44 45 51 46 47 48 48 54 66 63 61 47 53 50 58 59 76 61 88 58 75
40 25 26 48 57 55 51 53 49 43 42 44 41 42 42 42 42 52 65 65 59 50 49 45 44 42 42 42 47 44 41 39 48 50 51 53 79 46 48 56 56 64 55 69 93 78 73
52 47 32 30 46 55 55 54 51 47 41 39 38 54 39 40 46 49 82 59 51 53 54 48 45 45 40 42 42 38 38 39 43 49 51 51 61 53 48 56 50 68 56 51 54 56 64
30 50 54 44 36 43 51 57 54 49 42 36 34 64 37 38 56 38 46 46 54 53 57 51 50 45 42 41 42 40 38 35 44 48 48 46 52 66 44 39 40 39 41 39 59 54 49
57 30 38 57 62 43 42 48 50 50 48 41 52 50 34 34 62 43 52 49 51 50 47 48 47 44 40 42 45 39 40 43 48 49 47 47 54 66 42 40 45 47 41 40 40 59 70
39 60 32 34 55 62 51 47 58 58 50 46 56 68 52 46 50 36 42 44 48 56 48 49 42 45 42 40 36 39 41 38 55 52 58 54 50 55 50 34 34 42 36 40 48 68 45
28 48 62 33 31 52 62 55 61 56 49 47 56 53 55 50 37 41 41 36 41 49 55 50 46 43 36 34 37 37 36 37 42 53 57 53 62 50 48 44 43 46 44 40 55 56 47
73 29 54 64 35 29 53 62 64 60 55 54 60 50 59 47 53 42 48 41 38 34 41 43 49 34 38 39 26 23 31 33 31 47 46 46 55 46 59 35 34 45 39 39 39 38 44
91 57 32 59 68 41 28 57 66 64 60 61 47 54 59 51 44 40 30 33 38 38 36 42 42 39 42 39 39 38 36 36 34 39 43 44 51 51 52 33 32 33 25 31 34 31 34
95 90 40 39 64 76 47 28 59 69 64 62 54 56 54 33 39 34 42 47 45 44 48 46 52 46 50 50 53 46 54 48 44 41 44 44 51 51 57 38 45 25 30 24 25 24 25
89 100 96 40 48 73 82 52 27 54 72 67 63 61 59 44 37 36 44 44 46 50 57 54 52 53 63 55 43 33 36 41 44 48 50 50 49 54 57 39 27 19 26 34 32 20 20
79 89 100 100 53 55 78 80 47 27 53 75 71 69 65 56 40 44 44 45 41 35 37 55 66 63 68 47 41 40 27 25 30 54 54 54 53 52 45 54 30 13 26 32 30 25 21
82 83 93 100 100 84 80 86 81 48 30 61 77 78 72 70 61 59 50 43 48 44 41 52 60 74 72 47 47 39 31 35 32 33 68 68 68 75 62 59 39 20 32 36 25 17 20
81 85 90 99 99 100 98 95 90 84 39 37 61 72 84 78 72 71 62 57 62 59 39 59 61 70 64 56 43 39 38 32 44 28 43 46 52 58 52 54 63 31 42 28 18 23 27
80 87 91 99 100 99 100 98 98 94 83 35 50 53 84 94 82 80 76 77 70 65 59 58 52 59 51 48 42 40 44 40 35 30 33 39 27 25 34 37 27 30 23 28 30 29 31

GFSGBSN_850_rhum_135.txt.gz
RH
86 61 63 81 76 79 86 88 90 96 88 80 77 66 73 91 87 83 99 86 59 62 72 69 56 55 48 38 54 45 38 34 31 34 32 29 27 26 28 27 24 27 29 26 26 26 29
93 88 94 84 80 49 60 86 86 80 81 77 74 60 70 85 93 83 95 83 55 63 72 54 56 48 35 60 53 43 26 32 26 25 27 28 27 26 24 26 30 29 26 24 21 24 24
87 88 98 94 87 86 90 58 74 88 77 77 55 58 67 96 100 92 87 75 55 54 48 63 53 41 37 51 52 52 47 29 21 18 15 23 26 25 27 31 30 25 26 29 28 27 30
81 90 92 98 94 88 86 84 71 66 68 72 45 54 67 88 98 90 84 82 53 58 55 49 46 43 56 53 53 50 52 49 38 23 14 18 18 19 31 28 29 32 32 43 29 31 39
73 89 92 93 100 90 85 88 88 59 52 60 49 71 80 97 99 88 86 68 54 52 53 52 46 35 56 45 42 49 47 47 45 44 38 36 35 44 45 52 68 50 50 36 36 34 37
61 68 85 92 96 97 92 83 84 85 86 56 68 100 99 100 90 62 52 49 47 45 45 45 44 42 50 45 51 50 47 47 46 48 44 52 53 76 65 75 65 53 54 51 45 39 41
63 57 66 78 91 93 96 89 92 77 81 68 86 95 87 81 56 47 44 42 39 50 47 45 46 46 50 54 57 51 51 49 49 42 56 53 77 74 58 53 47 58 67 77 64 51 63
58 59 56 63 79 84 88 93 84 88 88 83 85 72 68 56 52 50 46 47 58 58 61 59 58 57 59 58 55 49 50 50 56 74 50 68 71 54 51 54 57 60 68 78 59 58 62
66 63 54 57 59 76 77 80 98 90 93 84 80 64 52 48 42 47 42 50 57 59 57 58 56 57 59 59 60 62 57 56 60 69 68 75 59 50 54 63 68 63 70 72 83 73 66
60 63 54 55 55 53 58 67 80 78 76 78 69 63 54 41 46 44 46 49 49 55 83 62 54 54 60 62 63 63 61 66 58 70 68 62 54 56 62 72 58 72 56 65 78 82 98
58 58 56 50 53 60 60 61 66 68 68 50 49 53 39 35 35 36 41 36 35 54 63 48 53 54 58 58 60 63 65 66 73 70 67 66 64 69 75 63 56 66 66 71 78 93 84
47 57 54 51 45 48 51 53 56 53 59 64 59 44 35 29 29 34 40 37 52 74 63 70 51 52 57 55 59 60 68 69 67 71 63 66 57 62 63 60 59 58 73 74 76 90 95
35 49 51 50 52 42 42 44 45 46 46 49 47 44 43 40 36 32 47 60 78 75 49 60 60 50 53 48 57 55 69 75 75 78 93 79 69 61 59 70 66 82 86 93 86 95 87
28 32 48 50 47 51 45 38 36 39 39 36 38 40 38 38 34 33 52 68 71 59 62 47 52 55 52 49 51 46 56 76 59 66 90 87 71 69 65 71 78 76 82 93 100 99 89
43 36 31 39 51 50 50 46 36 32 30 33 34 35 36 38 37 43 62 88 79 65 52 54 52 56 55 52 49 47 46 57 52 56 74 84 73 56 64 53 62 69 84 66 96 82 87
42 39 41 42 38 39 42 44 44 34 32 29 28 34 39 37 45 57 75 76 65 51 48 50 52 44 48 43 49 45 44 43 56 49 52 64 83 58 59 56 59 68 66 82 90 90 95
42 48 35 38 49 48 43 44 50 40 31 29 30 53 33 34 47 56 88 70 55 50 52 56 48 46 42 43 42 45 41 44 44 55 51 57 69 64 60 74 83 83 87 80 70 76 91
44 40 53 40 35 42 48 47 51 44 29 29 43 75 34 37 60 68 72 52 47 51 51 56 52 49 47 44 46 44 40 38 44 48 60 59 72 87 70 49 54 63 63 65 81 65 73
77 48 40 55 42 32 39 48 52 51 37 30 38 42 44 33 82 73 53 56 54 56 55 51 50 46 45 48 51 44 40 46 44 51 58 55 70 88 51 53 52 51 52 50 61 76 78
75 78 45 42 56 43 32 38 46 49 47 36 48 76 47 45 45 53 49 51 53 52 52 46 48 44 46 48 48 48 43 47 45 50 54 53 72 63 61 51 64 65 52 52 61 89 76
70 74 68 41 42 58 47 32 38 42 50 47 44 63 44 70 56 50 41 43 49 56 53 50 52 51 52 51 39 51 43 41 56 55 55 65 85 76 73 68 66 67 65 63 70 62 72
68 69 74 64 38 44 64 50 32 37 44 49 57 52 53 52 45 47 47 37 43 42 56 56 61 48 53 56 40 43 42 40 38 66 65 69 78 71 76 60 62 68 57 55 54 54 58
73 72 70 75 74 43 44 69 50 32 41 59 57 63 55 52 49 51 54 42 41 38 37 36 50 50 51 50 47 47 46 41 37 59 67 65 79 78 84 69 67 62 55 49 54 56 52
74 76 76 76 78 84 61 51 77 50 38 52 58 54 64 71 56 51 39 39 44 43 48 45 44 49 47 50 48 38 35 48 54 54 46 57 66 74 90 76 52 31 30 32 44 41 43
69 70 73 77 80 81 95 82 68 77 45 42 61 59 70 80 62 57 48 41 40 40 45 47 46 49 53 54 60 64 52 50 57 65 64 55 66 77 88 87 58 36 36 32 29 26 36
69 64 63 64 78 83 90 100 98 88 86 51 41 66 63 73 68 54 46 43 54 56 52 49 53 55 55 57 65 65 54 47 48 68 62 65 65 72 86 84 66 21 26 31 28 27 21
78 72 67 64 66 76 96 100 98 98 97 93 58 51 73 75 58 59 55 51 47 49 59 54 58 59 60 84 80 80 61 35 43 68 84 83 71 84 76 92 79 52 30 32 20 15 23
83 80 74 71 68 59 66 98 98 95 100 99 94 70 62 79 61 52 55 60 54 54 63 55 58 74 85 87 83 73 64 48 48 56 83 86 92 91 76 87 89 43 38 27 21 18 20
89 84 77 75 73 60 73 99 99 100 100 100 98 96 71 81 68 64 60 55 59 61 56 59 52 67 67 83 80 73 65 62 58 59 55 60 60 78 74 70 42 31 26 20 21 22 18